GEFSMW_500_meanwind_000.txt.gz
Wind_Speed
25 28 32 32 31 29 29 29 31 28 29 30 32 34 38 42 46 50 53 55 56 55 53 54 57 56 52 49 48 49 50 51 54 57 59 59 59 57 53 53 51 54 57
32 36 37 35 32 31 33 33 32 33 35 37 39 41 46 49 51 52 56 58 57 56 54 53 53 52 49 49 51 56 58 59 61 61 60 58 57 60 59 58 58 60 63
37 39 36 34 33 34 35 36 36 37 40 44 47 49 52 53 56 58 58 57 59 61 60 56 58 61 63 68 75 75 78 78 74 70 69 70 71 74 71 70 67 69 72
38 36 32 30 32 35 36 38 39 42 46 51 52 53 55 57 59 58 59 62 63 65 67 69 71 75 77 80 84 86 82 81 83 83 81 82 84 86 86 86 89 90 86
33 33 33 32 34 35 37 39 43 46 48 51 54 57 56 58 62 65 68 69 69 73 78 78 81 85 87 89 88 86 88 85 85 84 83 83 84 85 93 95 96 96 92
34 34 35 35 35 38 39 41 45 47 50 55 60 63 65 68 71 73 76 77 79 83 85 86 86 84 83 84 84 84 85 84 85 83 81 82 82 81 83 87 87 87 84
36 36 35 34 33 36 39 43 46 52 58 63 66 69 72 75 77 78 80 83 85 85 83 81 77 72 70 71 72 70 68 66 65 63 63 63 64 65 68 71 67 64 60
30 31 32 33 35 40 44 49 55 61 65 68 71 73 75 78 80 82 84 84 81 79 74 68 64 64 62 61 62 60 61 63 61 59 61 58 57 58 63 63 60 54 47
28 31 35 37 41 47 52 56 61 65 67 69 72 76 79 81 83 83 79 76 73 67 62 58 53 55 60 63 64 61 61 63 62 61 61 59 58 59 58 55 52 46 42
31 34 39 43 49 53 57 61 65 69 73 76 78 81 83 82 79 76 76 71 65 63 61 57 59 63 67 68 62 59 58 59 58 58 58 57 55 54 52 48 42 38 34
38 42 47 50 53 57 60 65 70 74 76 79 80 80 77 75 73 70 66 63 61 62 61 63 64 65 63 56 51 51 51 50 47 47 47 46 45 43 40 38 33 30 30
45 48 51 54 58 62 67 71 75 78 79 78 76 72 68 63 61 61 61 61 60 59 59 58 55 50 45 41 38 38 37 35 35 34 33 30 29 29 25 24 25 26 25
47 51 55 59 64 68 72 75 76 76 74 73 70 63 57 56 54 53 53 53 52 49 46 42 38 35 32 30 29 28 27 28 28 28 26 25 25 24 24 21 20 21 23
52 55 59 64 69 73 75 74 74 72 72 67 57 50 48 46 42 41 41 41 38 34 31 30 28 28 27 26 25 25 25 24 26 27 27 27 25 22 18 18 20 22 20
57 61 65 68 72 73 74 74 72 68 62 51 46 43 40 37 36 36 33 30 28 27 26 25 25 26 26 26 26 25 27 26 25 22 18 16 15 14 12 14 15 15 14
60 64 67 68 70 71 71 69 62 51 46 45 43 38 36 32 30 26 23 22 23 23 22 23 24 26 25 24 23 22 22 20 18 14 12 10 11 10 11 10 11 9 9
61 63 64 65 67 67 61 51 43 42 42 40 33 27 22 20 18 17 20 22 24 23 21 20 21 21 22 19 18 16 13 12 11 11 11 10 10 10 12 12 6 6 11
61 62 61 60 57 51 45 43 42 36 29 20 11 8 11 12 14 19 22 22 19 17 16 17 18 19 19 20 19 17 14 13 12 12 11 11 9 8 10 5 5 6 7
57 56 52 47 42 40 39 36 25 12 7 9 9 9 10 13 17 17 18 18 16 17 18 19 19 19 20 21 20 17 16 14 14 12 11 10 7 5 6 3 5 7 5
48 44 39 37 33 29 21 14 16 16 16 15 13 13 15 16 15 17 18 17 17 19 21 21 21 21 20 19 18 17 15 15 16 13 12 11 10 6 5 3 2 7 6
39 36 32 28 17 8 11 16 16 16 16 17 18 18 17 15 18 20 21 21 21 22 23 24 24 25 24 22 20 18 16 15 15 15 13 8 6 7 8 8 2 2 5
31 28 21 8 4 10 14 15 16 18 19 19 19 18 20 21 23 25 26 25 25 25 25 26 26 25 25 24 23 20 18 15 13 12 12 9 3 5 7 6 7 6 3
21 12 1 8 12 14 17 19 20 22 22 21 20 21 23 25 27 28 28 29 30 31 32 31 30 28 26 24 22 21 19 17 13 11 9 7 5 2 5 8 9 13 10
5 4 9 12 15 19 22 24 23 22 21 21 23 25 27 29 29 30 31 32 32 32 32 31 29 27 24 22 21 19 18 17 16 13 10 7 5 3 3 8 13 14 10
8 8 11 16 21 24 22 21 22 22 23 24 26 27 29 30 32 33 32 31 31 31 31 28 26 24 23 22 20 17 15 13 14 14 12 11 8 5 4 5 7 9 8
6 11 20 25 24 22 22 23 24 24 23 24 26 28 30 30 32 33 34 34 34 34 31 27 24 21 21 21 20 16 14 12 11 11 12 11 12 10 8 8 8 8 8

GEFSMW_500_meanwind_006.txt.gz
Wind_Speed
24 26 28 29 32 34 34 33 32 31 35 34 29 30 31 33 35 39 42 45 48 51 52 55 58 59 61 63 65 67 69 70 70 71 70 69 69 70 70 70 69 69 68
28 29 30 31 33 35 36 36 35 35 36 36 35 36 37 38 41 43 45 47 50 53 58 62 65 68 71 74 76 76 77 79 80 81 83 82 80 79 80 81 79 77 76
31 32 33 34 34 35 37 38 38 38 38 39 42 42 44 47 47 47 48 50 55 59 63 66 69 72 75 79 80 81 83 83 84 86 87 89 88 88 85 84 84 83 82
33 34 35 36 35 36 38 39 40 42 43 45 47 48 51 51 51 52 55 59 62 66 69 71 74 77 80 82 83 84 84 83 82 80 80 81 81 81 80 78 76 74 73
33 34 35 36 37 39 40 41 43 45 46 47 49 51 53 54 56 59 63 66 69 71 74 76 79 80 81 80 79 77 76 76 75 72 71 71 69 68 69 67 64 64 63
34 36 37 39 40 41 42 43 44 46 47 49 51 53 56 59 62 65 68 71 74 76 78 80 82 81 79 77 74 71 70 69 68 66 66 67 67 65 65 65 61 60 60
36 38 40 41 42 42 42 42 42 44 46 49 52 56 59 63 67 70 73 76 78 80 82 83 82 80 75 71 68 66 65 64 64 64 64 65 65 65 66 67 64 61 58
35 36 36 37 37 37 37 39 42 45 49 53 57 61 64 67 71 74 78 81 83 84 84 82 78 72 66 64 63 62 61 60 59 59 59 59 59 60 61 60 58 55 52
31 30 30 31 32 34 37 41 45 50 54 58 62 66 69 72 77 80 83 85 85 84 80 75 66 60 58 58 57 55 53 51 50 49 48 48 47 46 45 45 45 45 43
31 30 31 33 36 39 43 47 51 55 59 63 67 71 75 79 82 84 85 84 81 76 68 59 54 54 54 53 51 47 44 43 41 39 37 36 35 34 33 33 33 33 32
33 35 36 39 42 45 49 53 57 61 65 70 74 78 81 83 84 84 81 75 66 58 51 50 50 49 47 45 42 40 39 37 36 34 32 30 29 28 27 28 28 27 27
38 39 40 43 46 50 53 58 62 68 72 77 80 83 83 83 79 73 64 54 46 44 44 44 42 40 38 37 36 35 35 35 33 32 30 28 27 26 27 27 27 26 24
41 42 44 47 50 54 58 63 68 73 77 80 81 80 76 69 60 51 43 39 38 37 37 35 34 35 35 33 33 32 32 32 31 29 27 26 25 24 24 22 21 21 21
43 45 47 50 53 58 62 67 71 75 77 75 70 63 54 45 39 34 32 31 30 29 30 31 32 31 29 27 27 27 26 25 23 21 20 20 20 20 19 18 18 18 18
44 46 48 52 56 61 65 68 69 67 62 55 46 39 32 28 26 24 23 23 24 26 27 26 25 24 23 23 23 23 21 19 17 16 15 15 16 16 15 15 16 15 15
44 46 50 54 58 62 64 62 55 47 39 33 28 23 20 19 18 18 19 21 23 24 23 23 23 24 24 23 22 22 20 18 15 14 13 13 12 12 12 12 12 10 11
43 47 52 56 60 61 57 46 35 28 26 23 21 19 17 17 18 20 22 24 25 26 26 26 27 27 26 25 23 22 20 18 16 14 13 11 9 9 10 9 7 6 8
45 50 54 58 59 53 41 28 21 20 19 19 20 20 20 21 23 24 26 27 28 29 29 29 29 29 28 26 24 23 20 17 15 14 13 10 8 7 5 4 4 4 7
47 52 55 55 49 37 24 16 15 16 17 19 21 23 24 25 26 27 28 29 30 30 30 29 29 29 28 26 25 23 20 17 15 13 12 9 8 6 3 2 4 3 4
49 52 50 43 31 20 12 10 12 14 16 19 22 25 26 28 29 31 32 32 32 32 31 30 28 27 25 24 23 22 20 17 14 11 11 9 7 7 6 3 2 2 4
48 44 36 26 16 8 6 7 10 13 16 20 23 26 28 30 33 35 36 36 34 33 32 31 28 25 23 21 20 19 18 16 13 10 8 7 6 7 7 5 1 3 7
40 31 21 11 4 2 3 6 9 13 18 21 24 27 30 33 36 38 38 36 32 30 29 28 26 23 20 18 16 15 15 14 13 11 9 6 5 6 6 5 5 7 10
27 17 8 2 2 3 4 7 11 15 19 23 27 30 34 37 39 40 38 34 29 28 27 26 23 21 20 20 18 15 11 11 11 11 11 9 6 6 6 7 10 12 14
13 6 4 5 7 5 6 9 13 17 21 24 28 32 36 38 40 40 38 33 28 27 26 26 24 23 22 22 21 18 13 9 9 10 13 13 9 8 9 12 14 16 16
5 6 9 10 8 7 9 12 15 18 21 25 29 33 36 39 41 41 39 33 28 27 28 27 25 24 22 20 18 16 13 9 7 8 12 15 14 12 13 15 18 18 16
9 11 12 11 9 9 10 12 15 18 21 25 29 33 36 40 41 42 39 34 29 29 30 28 26 25 25 24 21 15 10 8 6 7 11 15 17 15 15 18 21 19 15

GEFSMW_500_meanwind_012.txt.gz
Wind_Speed
29 28 34 37 40 43 46 47 45 45 45 44 43 41 41 42 43 44 45 46 48 50 49 50 51 52 54 56 58 60 62 65 66 68 69 70 72 74 76 78 80 81 81
33 34 37 38 41 43 46 48 50 51 50 49 48 48 48 49 49 50 49 49 51 51 51 53 55 57 58 60 63 66 67 68 70 73 76 77 77 78 80 80 80 78 77
36 34 35 37 39 42 45 48 50 52 53 52 52 52 53 54 54 55 54 53 52 53 56 59 61 62 64 65 67 70 72 73 74 78 81 84 84 82 78 75 72 70 67
34 35 35 37 39 42 44 46 48 50 51 53 54 55 55 56 56 57 57 58 60 63 66 68 69 70 71 72 73 75 78 80 81 82 84 85 83 78 72 64 62 61 60
34 35 37 38 40 42 43 45 47 48 49 51 52 53 53 55 56 58 60 63 66 70 73 75 77 77 78 79 80 82 83 85 86 84 82 77 71 65 63 58 55 54 54
37 37 37 39 40 41 42 43 44 45 45 46 48 50 52 55 58 61 64 67 70 74 77 80 82 83 85 86 86 86 86 85 82 75 67 60 57 55 55 54 51 49 48
39 38 37 38 38 39 39 40 40 42 43 45 48 51 54 57 60 63 67 71 75 78 82 84 86 87 88 87 85 82 77 70 62 54 51 50 50 49 48 47 46 44 43
37 37 36 37 38 38 38 39 40 43 45 48 50 53 56 59 63 67 71 75 78 80 82 83 83 82 78 74 68 61 54 48 45 44 44 44 44 44 43 43 42 40 37
36 38 38 39 39 39 40 41 43 45 48 50 53 55 58 62 67 69 71 72 72 70 68 65 61 58 53 48 44 41 40 39 39 40 41 41 41 41 40 39 38 37 35
39 42 42 42 41 41 42 43 45 47 49 52 54 57 62 65 66 64 62 59 54 49 45 43 40 38 37 36 36 36 36 36 37 38 39 39 39 38 38 36 34 33 32
43 46 45 44 43 44 45 46 47 49 51 53 56 60 63 62 57 54 50 46 42 39 37 36 35 34 33 33 33 34 35 34 34 34 34 34 34 33 32 30 29 28 29
47 48 47 46 46 46 47 48 49 51 53 55 59 61 58 51 47 44 42 40 38 37 36 36 35 34 34 34 34 33 32 30 30 30 31 31 30 28 26 25 24 24 24
47 48 48 48 48 48 49 50 51 52 55 58 59 56 47 41 41 40 39 39 39 38 38 38 37 36 35 35 34 32 31 30 30 30 29 29 27 25 23 21 21 21 22
48 48 48 48 49 50 51 51 52 54 57 57 54 44 37 37 38 37 38 39 40 41 41 41 41 39 38 37 36 35 34 33 32 30 29 27 26 23 21 20 20 20 20
48 48 48 49 49 50 51 52 53 55 56 52 42 35 33 34 35 36 38 40 41 43 43 43 43 42 40 39 37 37 36 35 33 31 29 27 25 22 21 20 19 19 19
48 48 49 49 50 50 51 51 53 53 50 40 32 30 31 32 33 36 38 40 43 44 44 44 43 42 40 39 38 36 35 34 32 31 29 27 24 21 19 18 17 17 16
47 48 49 49 49 49 49 51 51 48 39 30 27 27 28 30 32 35 38 41 43 44 43 42 40 38 37 36 35 33 31 30 30 29 27 25 23 19 17 16 15 14 14
47 48 48 48 48 47 48 49 46 36 28 23 23 25 27 30 33 37 40 42 43 43 42 39 36 34 33 32 31 31 29 28 27 27 25 23 21 18 15 13 12 12 11
46 46 46 46 45 46 47 43 33 24 21 20 22 24 27 31 35 39 42 43 42 41 39 36 35 34 32 30 29 28 26 25 25 25 23 21 19 16 13 11 10 10 8
44 43 43 42 43 43 39 30 21 18 18 19 22 25 29 33 38 41 43 43 41 40 38 36 35 34 32 30 28 26 24 24 23 22 21 18 15 13 11 9 8 7 5
39 38 38 39 40 35 27 19 16 16 17 19 23 27 32 36 40 43 44 42 40 38 36 35 35 34 33 31 29 26 23 22 21 20 18 16 12 10 8 7 5 4 4
34 34 35 36 31 23 17 14 14 15 17 21 25 30 35 39 43 43 42 40 38 37 36 35 35 34 33 31 29 26 23 20 18 16 15 13 10 8 7 6 5 4 7
30 32 33 29 20 14 11 12 13 16 19 24 28 33 38 41 43 42 40 40 39 39 37 36 35 33 31 29 28 25 23 19 14 12 11 9 8 7 8 8 8 9 11
29 30 25 18 12 9 9 11 13 17 22 26 31 35 39 42 42 40 39 39 40 40 38 37 34 32 29 26 25 24 23 16 10 8 7 5 8 9 11 12 12 13 14
27 22 15 10 8 7 8 11 15 19 24 28 33 37 40 40 41 41 39 39 39 39 38 35 33 29 26 24 22 21 18 12 5 4 3 5 9 12 15 15 15 15 17
20 13 8 7 6 6 8 12 16 21 25 30 34 37 39 39 40 40 40 39 39 38 37 34 31 28 26 24 21 17 14 8 2 0 2 6 10 13 17 18 17 17 17

GEFSMW_500_meanwind_018.txt.gz
Wind_Speed
34 33 33 33 34 35 37 39 39 39 39 39 38 38 38 38 39 40 40 41 42 43 45 46 48 51 53 55 56 59 62 64 67 68 70 71 71 72 72 73 73 73 73
32 31 32 33 34 35 37 38 38 39 39 39 39 40 40 41 42 43 43 44 46 47 49 51 53 55 58 61 63 66 68 71 72 74 77 77 76 77 78 78 78 78 79
29 30 32 32 33 34 36 37 37 38 39 40 41 42 43 44 44 45 47 48 50 52 54 56 57 60 62 64 66 67 69 70 72 74 77 77 77 77 77 79 79 80 80
30 32 33 32 33 34 35 35 37 39 40 42 43 45 46 47 48 50 51 53 55 57 59 60 62 64 65 66 66 65 65 65 66 67 68 69 68 67 65 65 66 66 66
33 34 34 33 33 34 35 36 38 40 43 45 47 48 50 51 53 55 56 58 60 61 63 64 65 65 65 63 62 61 60 59 58 57 56 56 55 53 50 48 46 47 48
36 37 36 35 36 37 38 38 40 43 46 48 50 52 53 55 56 58 59 61 62 64 64 64 64 63 60 58 56 56 55 54 54 53 53 51 48 46 44 43 41 41 41
40 41 40 40 40 40 41 42 43 46 48 51 53 54 56 57 58 60 61 62 63 64 63 62 60 55 52 51 51 51 51 51 51 51 51 49 47 46 43 42 40 39 38
41 42 43 44 42 43 44 44 46 48 50 53 55 56 57 58 60 61 62 62 63 62 60 56 50 47 46 47 48 48 49 50 51 51 51 49 47 45 43 42 40 38 35
36 38 40 40 42 43 45 46 47 49 52 55 56 57 58 60 61 62 62 62 61 58 52 47 43 43 44 45 47 48 50 51 51 51 50 48 47 45 43 41 39 38 34
34 34 36 38 41 43 45 46 47 50 54 56 58 59 61 62 63 62 61 59 56 50 44 41 41 42 44 46 48 50 51 52 52 52 50 48 45 43 41 39 37 37 34
38 38 38 40 42 44 44 46 49 52 56 58 60 62 63 63 62 60 59 55 48 42 39 39 41 43 46 49 51 52 53 53 53 52 49 46 44 41 39 37 36 34 32
41 41 40 41 43 43 44 47 50 54 58 61 63 64 63 62 61 59 53 46 41 38 38 40 43 46 49 52 53 53 53 53 52 49 47 44 42 40 38 35 33 32 30
43 42 41 41 41 42 44 48 52 56 59 62 64 63 62 60 57 52 45 39 38 38 40 43 46 49 52 53 54 53 52 50 48 45 43 41 40 38 36 33 31 30 28
45 43 41 41 40 41 46 51 55 59 62 63 62 61 58 56 51 44 39 38 38 40 43 46 50 52 54 54 53 51 49 47 45 42 40 38 36 34 32 31 29 27 25
42 39 37 37 39 43 48 53 58 60 61 60 59 57 54 51 44 39 38 38 40 43 46 50 52 53 53 52 51 48 46 45 42 40 39 36 33 31 29 27 25 24 22
39 34 34 36 42 47 52 56 58 59 58 57 55 53 49 44 39 38 39 41 44 47 50 52 53 53 52 51 49 46 44 42 39 37 36 33 30 27 24 22 20 19 17
40 37 37 42 46 50 53 55 56 55 54 52 51 48 42 38 38 39 41 44 47 50 52 53 52 52 51 49 46 44 42 40 37 35 33 29 26 23 20 18 16 15 13
41 40 42 45 48 50 51 52 52 51 50 49 46 41 37 37 38 41 44 47 50 52 52 52 52 51 50 47 44 42 41 37 34 32 29 25 22 20 16 14 12 11 9
43 44 45 46 47 48 49 49 49 47 47 44 39 35 35 37 40 43 46 49 51 51 51 51 51 49 47 44 42 39 36 33 30 28 25 22 18 15 12 11 10 9 7
41 41 42 43 45 45 45 45 44 44 41 36 33 34 36 39 42 45 47 48 49 50 50 50 48 46 43 41 38 34 30 28 26 24 22 18 13 10 9 9 9 9 7
36 36 38 40 41 41 40 41 41 38 33 31 32 34 37 40 43 45 46 47 48 48 48 47 45 43 41 37 33 29 26 24 22 21 18 13 7 6 9 10 10 10 9
31 33 35 36 36 37 37 37 34 31 29 30 32 35 38 41 42 43 44 46 46 46 45 44 42 40 37 34 30 26 23 21 18 16 12 6 3 7 11 12 12 12 12
28 30 32 32 33 34 33 31 27 26 27 30 33 36 38 40 41 42 44 44 44 44 42 40 38 35 33 30 27 24 20 17 14 10 6 1 5 10 13 14 14 15 15
27 28 28 29 30 29 26 23 22 25 28 31 34 36 37 38 40 41 41 41 41 40 38 35 33 31 29 27 25 20 16 13 9 5 1 4 8 13 15 17 17 18 18
24 24 25 26 25 21 19 19 22 25 28 32 35 36 37 38 39 39 39 39 38 37 34 31 30 28 26 24 20 15 12 9 5 4 5 8 11 15 18 19 19 19 19
21 22 22 20 17 15 16 19 22 26 29 32 34 35 36 37 37 36 36 37 37 34 32 30 29 28 25 21 16 12 10 8 6 6 8 11 13 17 20 21 21 20 19

GEFSMW_500_meanwind_024.txt.gz
Wind_Speed
23 24 26 28 28 26 26 27 27 28 29 28 28 28 30 31 33 34 35 36 38 39 41 43 46 48 49 51 52 53 54 55 56 57 57 57 59 60 61 60 59 60 61
24 25 27 28 28 27 28 30 31 32 33 33 33 34 35 36 37 38 39 40 42 44 46 48 50 52 53 54 55 56 57 57 58 58 57 55 55 55 54 54 55 55 56
25 27 29 29 29 29 31 33 35 36 38 39 39 40 40 40 40 41 43 44 45 48 50 52 54 55 56 56 56 57 57 57 56 55 53 51 49 47 47 48 50 52 54
28 31 32 32 31 32 34 36 39 41 42 43 43 44 43 42 42 44 45 46 48 51 54 57 59 59 58 58 57 57 56 55 53 51 48 47 46 45 44 44 47 49 52
31 33 34 34 34 35 37 39 42 43 44 45 46 46 45 44 45 46 47 49 52 55 59 61 62 61 60 59 58 56 54 51 48 45 44 43 44 46 48 48 49 50 53
35 35 35 35 36 37 39 40 43 44 45 46 46 45 46 46 47 48 50 53 56 59 63 64 63 62 60 58 56 53 49 45 43 42 43 44 46 48 51 52 53 54 55
37 37 37 36 36 38 39 41 43 44 45 45 45 46 48 49 49 50 53 56 59 62 64 64 62 60 57 55 51 47 44 42 42 43 45 48 50 53 54 56 56 56 56
37 37 36 36 36 37 39 41 43 44 44 46 47 48 50 50 50 51 55 58 61 63 63 61 58 56 53 50 47 44 43 43 44 46 49 52 55 57 58 59 59 59 57
34 35 34 34 35 37 40 42 45 46 47 47 48 50 50 50 50 54 58 61 62 62 60 57 54 52 49 46 44 44 44 46 48 51 54 57 59 60 61 61 61 60 58
34 34 34 35 37 40 43 45 48 49 50 50 50 50 49 50 54 58 60 61 61 58 56 54 51 48 46 45 45 45 47 50 53 56 58 60 61 61 61 60 59 58 56
36 37 38 39 41 43 45 46 49 52 53 52 50 49 50 52 56 59 59 58 56 55 54 51 48 45 44 45 47 49 52 55 58 60 61 62 61 60 58 57 54 52 51
35 35 38 41 43 45 47 48 51 52 52 51 49 48 50 53 56 56 55 54 53 53 50 47 45 44 45 48 50 53 56 59 61 62 62 61 59 57 55 52 49 47 45
38 39 41 43 44 46 48 49 50 50 51 50 48 51 52 53 53 52 52 52 51 50 47 45 45 46 49 51 54 56 59 61 62 62 61 58 56 52 49 46 43 41 39
41 42 43 45 47 49 50 49 49 49 49 49 51 52 51 49 49 50 50 50 48 46 45 46 47 49 52 54 56 58 60 60 60 59 57 53 50 46 43 40 38 36 34
44 45 46 47 49 50 50 49 50 49 50 51 50 49 48 48 48 49 49 47 45 45 46 48 50 53 54 56 58 58 58 58 55 53 50 47 44 40 36 34 33 31 29
49 49 49 49 50 50 50 50 49 49 49 49 48 47 47 48 48 48 46 45 45 46 48 50 53 54 56 57 57 57 55 53 49 46 44 41 37 34 31 29 28 25 22
51 51 51 52 51 51 50 48 48 48 47 47 46 46 47 47 47 45 44 44 46 48 50 52 53 54 55 55 53 51 49 46 43 41 38 35 32 28 26 24 22 19 16
54 54 54 54 53 51 48 48 47 46 45 45 45 46 46 45 44 43 44 46 48 50 51 52 53 53 52 50 47 45 43 41 39 37 33 30 27 24 22 20 17 14 10
55 54 53 50 49 46 44 43 43 44 43 44 45 45 44 43 42 43 46 48 50 50 50 51 51 49 47 45 42 40 39 38 36 33 29 25 22 20 18 15 11 7 5
49 48 46 44 44 42 39 39 40 41 42 43 42 42 41 41 43 45 47 48 48 48 48 48 47 45 42 40 38 38 37 35 33 29 25 21 18 15 12 8 6 5 6
41 40 39 39 37 34 34 35 37 39 40 39 39 38 39 42 44 46 46 46 46 46 46 46 45 42 38 37 36 36 34 31 28 24 20 16 12 8 4 4 6 8 9
35 35 34 31 30 29 31 33 35 36 36 35 36 38 41 43 44 44 44 43 43 43 43 42 41 38 36 35 34 32 29 25 22 18 14 10 5 1 4 8 11 12 12
26 25 24 23 24 26 29 31 32 32 32 33 35 39 41 42 42 41 41 40 40 40 40 39 38 35 33 32 29 26 23 20 17 13 8 5 3 6 10 13 14 15 14
18 18 18 19 22 25 27 28 28 29 30 33 36 39 39 40 39 38 38 37 37 37 36 36 34 31 29 27 24 20 19 17 14 10 7 6 10 13 15 16 16 16 15
13 13 15 18 21 23 24 24 25 27 31 34 36 37 38 37 37 36 35 34 34 33 33 31 29 27 25 22 18 17 16 14 11 9 8 10 13 15 17 17 16 15 13
9 12 15 17 18 19 19 21 24 28 31 33 35 35 36 35 35 34 33 32 31 31 29 28 26 24 21 17 15 16 15 13 11 10 10 13 16 17 18 17 16 14 13

GEFSMW_500_meanwind_030.txt.gz
Wind_Speed
30 29 29 29 29 29 29 27 26 25 25 24 23 23 24 25 26 27 28 29 31 32 33 34 35 36 38 40 42 44 46 49 51 53 55 56 58 59 60 61 63 63 63
32 31 31 32 32 32 33 32 30 30 29 28 27 27 27 28 29 30 31 32 34 35 36 37 39 40 42 43 45 48 50 53 56 57 58 58 59 61 61 61 60 60 60
34 33 33 34 35 35 35 35 35 35 33 31 31 31 32 33 32 33 34 36 37 38 39 40 42 44 45 47 49 52 54 57 59 60 60 60 60 61 60 59 57 54 53
36 34 34 35 36 37 37 38 38 37 36 34 34 34 35 35 36 38 39 40 41 42 44 45 46 48 50 51 53 55 57 59 61 61 61 61 61 60 58 56 52 49 48
38 36 35 37 39 39 40 40 40 40 38 37 37 38 38 39 40 42 44 46 46 47 49 50 50 51 52 54 56 58 60 61 61 61 61 61 60 58 55 52 50 49 49
38 38 38 39 40 41 41 42 42 41 40 40 40 40 41 42 45 47 49 50 50 51 53 53 53 53 54 56 58 60 60 61 61 61 60 59 57 55 52 51 51 51 51
36 37 37 37 39 40 41 41 41 40 41 41 42 42 42 44 47 48 49 51 53 54 54 54 53 53 55 58 59 60 60 60 60 60 58 57 55 54 53 53 54 55 55
33 33 33 34 35 37 38 39 39 40 40 41 41 42 44 46 46 47 50 51 53 54 53 52 52 54 57 58 59 60 60 59 59 58 56 55 54 55 55 56 58 58 59
31 30 30 31 32 33 34 35 37 38 39 40 41 42 43 45 47 50 52 53 55 53 52 53 54 55 56 57 58 59 59 58 58 56 55 55 55 56 57 59 61 63 63
28 28 28 29 30 32 33 35 36 38 39 40 42 43 45 47 50 51 53 53 52 52 52 53 53 54 55 56 57 57 57 57 56 56 56 56 57 59 60 62 63 65 66
27 27 28 29 30 31 33 35 36 37 39 41 43 45 46 49 50 51 52 51 51 52 52 52 53 54 55 56 56 56 56 56 56 57 58 58 60 61 62 62 63 63 63
29 29 30 31 32 33 35 37 38 39 41 43 45 47 49 51 53 52 51 51 52 52 52 53 53 54 54 54 54 54 55 56 57 58 59 60 61 61 60 59 58 56 55
32 32 34 35 36 37 38 40 41 42 44 46 48 51 52 53 52 52 52 52 52 51 52 52 53 53 53 53 53 54 56 57 58 59 60 59 58 57 55 52 50 48 47
35 36 37 38 38 40 42 43 44 47 49 50 51 52 53 52 52 53 52 52 51 51 51 52 51 51 52 52 54 56 57 58 58 58 57 56 53 50 47 44 43 41 40
39 40 41 43 44 45 46 48 49 50 51 51 52 53 53 53 53 53 51 50 50 50 50 50 50 50 52 53 55 56 57 57 56 54 52 50 47 44 42 40 38 37 34
45 46 46 47 48 49 50 51 51 51 51 50 50 52 55 55 53 50 47 47 48 48 48 48 49 51 53 54 55 55 55 54 53 50 46 44 42 40 39 37 34 31 28
49 49 49 49 49 50 50 50 49 49 49 49 52 55 56 53 48 46 46 46 46 46 47 48 50 52 53 53 53 53 51 50 47 44 42 40 39 37 34 31 27 24 21
48 48 47 47 47 47 47 47 47 49 50 51 54 55 52 47 44 43 44 44 44 46 47 49 50 51 51 51 50 48 47 45 42 40 38 35 33 30 27 22 19 16 13
45 43 42 42 42 42 42 43 45 49 52 54 54 49 44 41 41 41 42 43 45 47 48 49 49 48 48 47 45 43 41 39 38 36 33 30 26 23 18 14 11 9 6
41 40 39 38 38 39 40 41 45 50 51 49 44 41 39 39 39 40 42 44 46 47 47 47 46 45 43 41 39 37 36 34 33 31 28 23 18 14 10 7 4 2 1
38 36 36 35 35 37 40 43 46 47 43 39 37 37 37 38 39 41 43 45 46 46 45 44 43 40 38 35 33 32 31 29 26 24 19 14 9 5 3 2 3 4 5
32 31 31 32 34 37 39 40 40 37 35 34 34 35 36 38 40 42 43 44 44 43 42 40 37 34 32 30 29 28 26 23 20 16 12 7 4 4 6 7 7 7 7
26 27 28 29 32 34 33 32 30 29 30 31 33 35 37 40 41 42 43 43 42 39 37 34 32 30 28 26 25 24 22 19 15 10 7 5 7 9 9 9 10 10 9
23 24 25 27 27 25 23 24 25 26 28 30 33 36 38 40 41 42 42 40 37 34 30 28 27 25 24 22 20 19 19 16 10 7 6 8 11 12 12 12 11 10 9
21 21 19 16 15 16 19 21 23 25 29 32 35 37 39 41 41 40 38 35 30 26 24 23 22 21 19 17 16 15 13 10 6 6 8 10 12 12 12 12 11 10 9
11 9 9 11 13 15 18 20 24 27 30 33 35 38 39 40 38 36 32 27 23 21 19 19 19 17 15 13 13 11 8 6 6 8 10 12 13 13 12 12 11 11 10

GEFSMW_500_meanwind_036.txt.gz
Wind_Speed
35 35 36 34 31 31 31 31 32 33 34 36 37 37 38 39 39 39 40 38 37 37 37 37 36 36 38 40 41 43 45 47 49 50 52 53 55 57 59 61 63 64 65
37 40 38 40 37 35 33 33 35 35 37 39 40 41 42 43 43 43 42 41 39 38 38 39 39 39 42 43 45 47 48 50 53 54 56 57 59 61 63 64 66 67 68
40 44 44 43 41 38 35 35 36 37 39 41 43 44 44 44 45 45 45 43 40 38 40 39 40 42 44 46 47 49 50 53 55 57 59 59 59 60 63 66 68 68 68
38 42 43 42 40 38 37 36 37 38 40 42 44 46 47 47 46 47 46 44 42 42 42 41 43 45 46 46 48 50 52 54 56 57 58 60 61 62 62 64 66 67 68
36 38 39 38 38 38 37 37 37 39 41 43 45 47 48 48 47 47 46 45 43 42 43 43 44 46 47 49 51 53 55 56 56 58 59 61 62 62 62 63 65 67 68
35 35 35 34 35 36 36 36 38 40 41 43 44 46 47 47 47 47 46 46 45 44 44 45 46 47 49 51 54 56 56 56 57 59 59 61 62 64 64 65 66 68 68
35 37 36 34 34 34 35 36 37 39 41 42 44 45 46 46 47 47 46 46 46 45 46 48 49 50 52 54 56 57 56 57 58 59 60 62 63 64 66 67 68 68 67
37 37 36 34 34 33 34 36 37 39 41 42 43 44 45 46 46 46 47 47 47 47 48 50 51 53 55 58 58 58 58 59 59 60 61 62 63 65 67 68 67 67 65
30 31 32 33 32 33 34 36 37 38 40 41 43 44 45 45 45 46 47 47 48 49 51 53 55 57 59 59 59 59 60 60 61 61 62 63 65 66 67 68 68 67 66
27 30 31 31 31 33 34 35 36 37 39 41 42 44 45 45 46 46 46 48 50 52 55 56 57 59 60 61 61 61 62 62 62 62 63 65 66 67 67 68 68 68 69
33 34 32 32 32 33 34 35 37 38 40 42 43 45 46 46 47 48 49 51 53 55 56 58 60 61 61 63 64 64 63 62 62 63 64 65 66 67 67 68 68 68 68
40 37 35 34 33 34 36 37 39 40 41 42 44 46 47 48 49 51 53 55 56 57 58 59 60 61 62 64 64 63 61 61 61 63 64 65 66 67 67 67 66 65 63
37 34 34 34 36 37 39 40 41 42 43 45 47 49 50 51 53 54 56 57 58 59 60 61 61 62 64 64 60 58 58 59 61 63 64 65 66 66 65 64 61 59 56
32 33 36 39 40 41 42 43 45 46 48 49 50 52 52 54 55 57 58 60 61 62 63 63 63 63 61 57 56 56 57 59 61 63 64 64 64 63 61 57 54 51 48
42 43 44 45 46 47 47 47 49 50 51 52 53 53 54 55 56 57 59 61 63 65 64 62 60 57 55 54 55 56 58 59 60 61 61 61 59 56 52 48 45 43 40
52 52 51 51 50 50 50 50 51 52 52 53 53 53 54 55 57 59 60 62 64 63 60 57 54 53 53 54 55 56 57 58 58 58 56 53 50 47 44 42 39 36 33
54 54 53 52 51 51 50 50 50 50 51 51 52 52 53 55 57 58 61 62 62 60 57 53 52 52 52 54 55 55 55 55 54 52 48 44 42 39 37 35 31 28 25
52 52 52 51 50 49 49 48 48 48 49 50 51 51 53 55 56 58 60 59 58 54 51 50 50 51 52 52 53 52 51 49 46 43 39 37 35 33 30 27 23 19 16
49 49 49 48 47 46 46 45 45 46 47 48 49 51 53 54 55 57 56 54 52 50 48 48 49 50 50 50 49 47 43 40 37 36 34 31 28 25 22 18 14 12 10
45 45 45 45 44 43 43 43 43 44 45 47 48 50 53 54 54 53 50 47 46 46 46 47 48 48 47 45 42 39 35 33 31 30 28 25 21 18 14 11 9 7 7
42 41 41 40 40 39 39 39 40 42 44 46 48 49 49 49 47 45 44 45 45 46 46 46 46 44 40 37 33 30 28 26 24 23 21 18 14 11 9 7 7 7 7
37 36 36 35 34 33 34 35 38 40 42 43 43 43 42 42 41 41 42 44 45 45 43 41 38 35 31 28 26 25 23 20 18 16 13 11 8 7 6 7 7 7 7
32 31 30 29 29 30 31 33 35 37 37 37 36 36 37 38 40 41 42 42 41 39 36 32 29 26 23 22 22 21 18 16 12 9 8 6 5 6 7 7 8 8 8
26 25 25 25 26 27 29 31 32 32 31 32 34 35 36 37 38 39 38 36 34 30 27 24 21 20 18 18 18 18 15 11 8 5 4 4 5 7 8 8 8 8 8
20 21 22 23 24 25 25 25 26 27 30 32 34 35 36 36 35 34 32 29 26 23 20 18 17 16 16 16 15 14 11 8 5 3 4 5 6 8 8 9 8 8 9
15 16 17 18 18 20 21 23 25 28 30 32 33 34 34 32 30 27 24 22 19 17 16 16 15 14 14 13 12 9 7 4 3 4 6 7 8 8 9 9 9 9 9

GEFSMW_500_meanwind_042.txt.gz
Wind_Speed
34 35 35 34 34 34 33 32 32 34 36 36 35 35 35 34 34 33 34 35 35 36 37 38 38 38 38 38 39 39 40 40 41 42 44 46 48 49 50 51 53 54 56
35 36 36 37 36 35 35 35 36 38 39 38 36 37 38 37 36 36 36 38 39 40 39 40 40 40 40 40 40 41 42 43 43 44 45 47 48 50 52 53 55 57 59
35 36 37 37 36 36 36 37 39 41 42 41 39 38 38 38 38 38 38 40 40 41 41 41 40 41 41 41 42 42 43 45 46 47 48 49 50 52 54 57 59 60 60
36 37 36 35 35 36 37 38 41 42 41 40 40 41 39 39 39 39 40 41 41 41 42 41 42 43 43 44 44 45 45 46 49 50 51 53 54 55 56 58 60 61 62
36 35 34 33 34 36 38 40 43 42 40 41 41 39 39 39 40 40 41 42 42 42 43 43 45 45 46 46 47 47 48 49 50 52 54 56 57 59 60 60 60 61 62
35 34 33 33 35 38 40 42 44 43 42 42 40 39 39 39 41 41 42 43 43 44 44 45 46 46 47 48 49 50 50 52 54 56 57 59 61 63 63 62 61 61 63
32 32 32 34 36 40 43 45 44 44 43 43 41 39 39 40 41 43 44 45 45 45 46 47 47 48 49 50 51 51 52 55 57 59 61 62 64 65 65 64 63 63 63
29 29 31 35 39 42 44 44 44 43 43 42 40 39 41 41 43 45 46 47 47 47 48 49 49 50 50 51 52 54 56 58 60 62 63 64 65 66 65 65 65 64 64
28 31 34 37 40 42 44 45 45 43 40 40 39 40 41 43 45 47 48 49 50 51 51 51 51 53 54 54 56 57 59 61 62 63 64 64 64 64 65 66 66 66 65
31 33 36 39 41 43 45 44 42 40 39 39 40 41 43 46 48 50 51 52 53 53 54 55 56 57 58 58 59 60 61 62 63 63 64 63 62 62 63 63 65 66 67
34 36 38 40 42 44 44 43 41 39 38 40 41 43 45 48 50 53 54 55 56 57 58 59 60 60 61 61 62 63 63 64 63 62 61 61 61 61 62 63 65 66 68
37 38 40 42 44 44 43 42 41 41 41 42 44 47 49 52 54 56 57 59 60 61 61 62 62 62 62 62 62 63 63 63 62 61 60 60 59 60 61 63 64 66 67
40 41 42 43 43 43 44 46 46 45 46 49 51 52 54 55 57 58 59 60 61 62 62 62 62 61 62 62 63 63 62 61 60 58 58 58 58 59 60 61 63 63 63
41 42 42 43 44 46 48 51 52 52 54 55 55 56 57 57 57 58 59 60 60 60 60 60 60 60 60 60 60 60 59 58 57 57 57 57 57 58 59 60 59 58 54
44 43 44 45 48 51 55 57 58 58 58 57 57 56 55 55 55 56 56 57 57 57 57 58 58 58 58 58 58 58 57 56 55 55 55 56 57 57 57 55 51 47 43
47 46 48 52 55 57 58 59 59 59 58 57 56 55 54 53 53 53 53 54 54 55 55 56 56 56 56 56 56 55 54 53 53 53 54 55 54 53 50 46 41 38 34
50 53 56 57 58 58 58 58 57 57 57 56 54 53 52 51 50 50 51 52 52 53 54 54 54 54 54 53 52 51 51 51 52 52 52 51 48 44 39 35 32 29 26
55 55 56 56 56 56 56 56 55 54 53 51 50 49 47 47 48 48 48 49 49 50 50 51 50 50 49 49 48 49 50 50 50 49 47 43 38 33 29 26 23 21 20
53 53 53 53 53 53 52 52 51 50 48 47 45 44 44 44 44 45 46 47 47 48 48 49 48 46 46 46 46 46 46 45 44 41 37 32 28 23 20 18 16 16 15
50 51 51 50 50 50 49 48 47 45 44 42 41 41 41 42 43 44 45 46 46 46 45 44 44 44 44 43 42 41 39 37 35 32 29 24 20 16 14 12 12 12 12
47 47 47 47 46 46 44 43 41 40 39 38 38 39 40 41 42 42 43 43 42 42 42 42 42 41 39 38 36 34 31 29 27 25 22 18 14 11 10 9 9 10 11
43 43 42 42 41 39 38 37 36 35 35 36 36 38 38 39 39 39 40 40 40 40 39 38 37 35 33 31 29 27 24 22 20 18 15 11 9 7 7 7 8 9 11
38 38 37 36 34 33 32 32 32 32 33 34 35 36 37 38 38 38 38 38 37 35 34 32 31 28 26 25 23 21 18 16 14 11 8 6 4 5 6 7 8 10 11
32 31 30 29 29 29 29 28 29 31 32 33 34 35 36 36 37 36 35 34 32 30 28 25 24 22 21 20 18 16 14 11 8 5 3 3 3 5 6 7 8 10 12
25 24 24 24 24 24 25 27 28 30 31 32 34 34 35 34 34 32 30 27 25 23 21 20 19 18 17 16 15 13 10 7 3 1 3 3 4 5 6 7 9 10 12
19 18 19 19 20 22 24 26 29 30 32 33 33 33 32 30 28 25 23 21 20 18 17 16 15 15 14 13 11 8 5 2 2 4 5 5 6 7 7 8 9 11 12

GEFSMW_500_meanwind_048.txt.gz
Wind_Speed
26 25 23 21 21 21 21 23 25 28 29 31 32 33 32 31 30 29 28 28 29 29 29 30 30 30 31 32 32 32 33 34 36 38 40 41 42 43 44 46 47 49 50
28 27 25 23 22 22 23 25 27 29 32 34 35 35 35 34 33 31 27 27 28 28 28 29 30 31 32 33 35 36 36 38 39 40 42 43 44 46 47 48 49 51 52
29 28 28 26 25 24 26 27 30 32 35 36 37 38 36 34 34 29 27 27 27 28 29 29 29 32 34 35 37 38 39 41 42 42 44 45 46 47 48 50 51 53 55
31 30 30 28 28 27 29 31 33 36 37 37 38 40 38 37 35 31 29 28 28 28 29 30 33 34 36 38 39 41 43 44 45 46 47 48 49 50 51 52 54 56 58
33 32 32 31 31 31 32 34 36 38 38 39 40 41 40 39 35 32 31 30 30 31 32 33 35 37 39 41 43 45 47 48 49 50 51 52 53 55 55 56 57 59 61
35 34 34 34 34 34 35 38 39 41 41 43 43 42 41 38 37 36 35 33 34 35 35 37 39 41 43 46 48 49 50 51 53 54 55 57 58 59 60 61 61 62 63
36 36 35 36 36 36 38 40 41 42 43 43 43 43 42 40 39 39 38 37 38 39 40 42 44 46 48 50 52 53 54 56 57 59 60 62 63 64 65 65 65 65 64
35 35 35 36 37 38 39 39 40 41 42 41 42 41 41 40 39 39 40 41 42 44 46 47 49 51 53 55 56 57 59 60 62 63 64 65 66 67 67 67 67 65 64
33 33 34 34 35 35 36 37 39 39 40 41 42 42 43 42 42 43 43 44 47 49 51 52 54 55 57 59 60 61 62 63 64 65 66 67 67 67 67 67 66 66 64
31 31 31 31 32 33 34 36 38 39 41 42 43 44 44 44 45 46 48 49 52 54 55 57 58 59 61 62 63 64 64 65 66 66 66 66 65 65 65 65 65 66 65
30 30 30 31 33 34 36 37 40 41 43 44 45 47 47 48 49 50 52 54 56 58 59 59 60 61 61 62 63 64 64 64 65 65 65 64 64 65 65 64 64 64 64
32 32 32 33 35 37 38 40 42 44 45 47 49 51 52 53 54 55 56 58 59 60 60 60 60 61 61 62 63 63 63 63 64 64 63 64 63 63 63 62 62 63 63
34 34 35 37 38 40 42 43 45 47 49 50 52 54 55 57 58 59 59 60 60 60 60 60 60 60 61 61 62 62 62 62 62 62 61 61 60 60 60 60 60 60 60
36 37 38 39 41 42 44 46 48 50 52 54 55 57 58 59 60 60 60 60 60 59 59 59 59 59 59 59 59 59 60 59 59 58 58 58 58 58 58 58 58 58 57
39 39 40 42 44 46 48 50 51 52 55 57 58 59 60 60 60 59 59 59 58 58 58 57 57 57 57 57 57 57 56 56 56 56 56 56 56 56 56 56 55 54 50
41 42 43 45 47 49 51 52 54 56 57 58 58 58 58 58 58 58 58 57 57 56 55 54 54 54 54 54 54 54 53 53 53 53 54 54 54 54 53 51 49 45 40
42 44 46 48 50 52 54 56 56 57 57 57 57 56 56 56 56 56 55 54 53 52 52 51 51 51 50 51 51 51 51 51 51 51 50 50 50 47 44 42 38 34 30
43 45 47 49 51 53 54 55 55 55 55 55 55 54 54 53 53 51 50 49 49 48 48 48 48 49 49 49 49 49 49 49 48 47 46 44 41 39 35 31 28 26 23
44 46 47 49 51 52 52 53 53 53 53 53 52 51 50 49 48 47 46 46 45 45 45 46 46 46 46 46 46 46 46 45 44 42 39 35 32 29 25 22 20 19 19
44 45 47 49 49 50 51 51 51 50 49 48 47 46 45 45 44 44 43 43 43 43 44 44 44 44 44 44 43 42 40 39 37 34 30 27 23 20 17 16 15 15 17
43 45 46 46 47 47 47 47 47 46 45 44 43 42 41 41 41 41 42 42 42 43 43 43 42 41 40 39 37 35 32 30 28 25 22 20 16 14 12 12 13 14 15
41 42 43 43 43 43 42 42 41 40 40 39 38 38 39 39 40 40 40 41 41 41 40 39 37 35 34 31 29 26 24 22 20 18 16 13 11 9 10 10 11 13 14
37 38 38 38 37 37 37 36 36 35 35 35 36 36 37 38 38 39 39 39 38 37 35 33 30 28 26 23 21 19 18 16 15 12 10 8 7 8 9 10 11 13 14
32 32 32 32 32 31 31 31 31 31 32 33 35 36 37 38 38 37 36 35 32 30 28 26 24 22 20 18 17 15 13 11 8 6 5 5 6 7 8 9 11 13 14
26 26 26 26 26 26 26 28 29 31 32 34 35 36 36 35 34 32 30 28 26 23 22 20 19 18 16 15 13 11 8 5 3 4 5 6 6 7 9 10 12 13 15
21 21 20 21 22 23 25 27 29 31 33 34 34 34 32 30 28 26 24 21 20 18 17 16 15 14 12 10 8 5 3 4 5 6 7 7 7 8 9 11 12 14 15

GEFSMW_500_meanwind_054.txt.gz
Wind_Speed
23 23 24 26 27 27 27 27 26 25 26 27 28 30 32 34 36 35 35 33 33 33 31 31 31 30 31 29 28 28 28 28 27 28 29 30 32 34 36 37 39 40 42
27 27 27 28 29 30 30 30 29 29 30 31 32 33 36 37 38 38 36 35 33 31 27 26 27 27 27 27 27 25 25 25 27 29 31 34 35 36 38 39 41 43 44
31 30 30 30 30 31 32 32 31 31 33 34 35 35 37 39 41 41 39 37 33 28 26 26 25 25 25 27 27 27 27 29 30 32 36 38 40 41 41 42 45 47 48
34 34 33 31 31 32 32 33 33 33 35 36 36 37 39 41 42 42 40 37 31 29 26 24 24 24 25 27 29 30 31 33 35 37 40 42 44 46 48 49 50 52 54
36 35 34 33 33 33 33 34 35 35 36 37 38 39 41 42 42 41 39 35 32 29 29 29 27 27 28 30 32 33 35 37 39 42 45 47 49 50 52 55 56 57 58
37 36 35 34 34 35 35 36 37 38 39 39 40 41 42 42 42 40 39 38 34 32 32 31 31 31 33 34 36 38 40 42 45 47 49 51 53 54 56 58 60 61 62
36 35 35 35 35 36 37 37 38 39 40 41 42 42 42 42 42 41 40 38 36 35 34 35 36 37 38 40 41 44 46 48 49 51 52 55 56 58 60 62 63 63 63
34 34 34 34 35 35 35 36 37 39 40 41 42 42 42 41 40 41 40 40 39 39 39 40 41 42 44 45 47 49 50 51 52 54 56 57 58 60 61 62 63 64 64
30 30 30 31 31 32 33 35 36 38 39 40 41 42 42 41 41 41 41 41 42 43 44 45 45 46 48 50 50 51 53 54 55 56 57 59 60 61 62 62 63 64 64
27 27 27 28 29 30 32 33 35 37 38 40 41 42 42 42 42 43 43 44 46 47 48 48 49 51 52 53 53 54 55 56 57 57 58 59 60 61 62 61 62 63 63
25 26 27 27 29 30 32 33 35 36 38 39 40 41 42 42 44 45 47 48 50 51 52 52 53 54 54 55 55 55 56 56 57 58 58 59 59 60 60 60 60 60 60
24 25 27 28 29 31 33 34 35 37 38 39 40 42 43 45 46 48 50 51 53 55 55 56 56 56 56 56 57 57 57 57 57 56 56 57 57 57 57 58 58 58 58
27 28 29 30 32 33 35 36 38 39 40 41 43 44 46 47 49 51 53 55 56 56 57 57 57 57 57 57 57 57 57 56 55 54 54 54 54 54 55 55 56 56 57
31 32 33 34 35 36 38 39 40 42 43 44 45 47 49 51 53 54 55 56 57 57 57 58 58 58 58 57 56 56 55 54 53 52 52 52 52 53 53 54 54 54 54
34 35 36 37 38 39 41 42 43 44 46 47 48 49 51 52 54 55 56 57 57 58 57 57 57 57 56 55 54 53 52 51 51 51 51 51 52 52 52 52 51 50 50
38 39 40 40 41 42 43 44 45 45 46 47 49 50 52 53 55 56 56 56 57 56 56 56 55 54 53 52 51 50 50 49 50 50 50 50 50 50 49 48 47 45 44
39 38 40 40 41 42 42 43 43 45 46 48 49 51 53 54 55 55 55 55 55 54 53 52 52 51 50 49 49 48 48 49 49 49 49 49 48 46 45 43 42 40 37
37 38 38 39 40 41 42 43 44 45 47 49 50 52 53 53 53 53 53 52 51 50 50 49 49 48 47 48 48 48 48 48 48 47 46 45 43 41 39 37 35 31 29
36 36 37 38 40 41 42 43 45 46 48 49 50 50 50 51 51 50 49 49 48 48 47 47 47 47 47 47 47 47 47 46 45 43 41 38 35 33 30 28 26 24 22
35 36 37 39 40 41 42 44 45 46 47 47 48 48 48 48 47 47 46 46 46 46 45 45 45 46 46 45 45 44 43 41 39 36 33 29 26 24 23 21 19 18 18
35 36 37 38 39 40 42 42 43 44 44 44 45 44 44 44 44 44 44 44 44 44 44 44 44 44 43 42 40 37 35 32 30 27 24 21 19 17 15 13 13 14 15
33 34 35 36 37 38 39 40 40 41 41 41 41 41 41 42 42 42 42 43 43 43 42 41 40 38 36 33 31 28 26 24 22 19 17 15 13 11 10 10 11 12 13
31 32 33 34 35 36 37 37 37 37 37 38 39 39 40 41 41 42 41 41 40 38 36 34 32 30 28 25 23 21 19 17 15 13 11 9 7 7 7 8 10 12 12
30 30 31 32 33 33 34 34 34 34 35 36 37 39 40 40 40 39 37 35 33 31 29 26 25 23 21 20 18 16 13 11 9 8 6 4 4 6 7 8 10 11 12
26 27 28 28 29 29 29 30 32 33 34 36 37 38 37 36 34 32 29 27 25 23 21 20 18 17 16 14 12 9 7 5 4 2 2 3 5 6 7 9 10 11 12
21 22 23 23 24 26 27 29 31 32 33 34 33 33 31 29 26 24 21 19 18 16 15 14 13 12 10 8 5 3 1 1 2 3 4 5 6 7 8 10 11 12 13

GEFSMW_500_meanwind_060.txt.gz
Wind_Speed
25 26 27 27 24 22 21 22 23 24 25 27 28 29 29 30 30 30 31 32 33 33 34 33 32 31 30 29 28 26 25 25 25 26 26 26 26 28 29 29 32 34 36
28 26 27 29 26 24 24 25 26 27 28 29 30 31 32 32 32 33 33 34 34 35 36 35 33 31 30 29 27 25 25 26 25 26 28 27 28 30 31 33 36 38 40
29 29 30 30 30 28 27 27 29 30 31 32 32 33 34 35 35 35 36 37 38 37 38 37 35 33 30 28 28 28 28 28 28 29 30 31 32 33 35 36 39 41 44
32 32 33 33 32 32 30 30 32 32 33 34 34 35 36 37 37 38 39 40 40 39 39 38 36 34 33 31 31 31 31 31 32 33 34 35 36 38 40 43 46 48 49
33 34 34 36 35 36 35 34 34 34 35 35 36 37 38 39 40 41 42 42 42 41 40 39 38 37 35 34 34 33 34 35 36 37 39 40 42 44 46 47 50 53 55
34 34 35 36 37 38 37 36 35 35 36 36 38 39 40 41 42 43 44 44 43 42 41 40 40 39 37 37 37 37 37 38 40 42 43 44 47 49 51 52 54 56 58
32 34 35 36 37 37 38 37 37 36 37 38 39 41 42 43 44 45 45 46 45 43 42 42 42 41 40 40 40 40 41 42 44 46 47 49 51 53 55 56 58 59 61
34 34 35 36 36 37 37 37 37 37 38 39 40 41 42 43 45 46 46 45 43 43 44 45 44 43 43 43 43 43 45 46 47 49 50 52 54 56 57 59 61 61 62
37 36 35 35 35 35 36 37 37 37 38 39 40 41 43 44 45 46 46 45 45 46 47 47 46 46 46 46 46 47 48 50 51 52 54 55 56 58 59 61 62 63 63
35 34 34 33 33 33 34 34 35 37 38 39 41 42 43 44 45 46 46 47 48 49 49 48 49 50 50 50 51 52 52 53 54 55 56 57 58 59 61 61 62 63 63
30 30 29 30 31 31 32 33 34 35 37 38 40 41 43 44 45 46 47 49 50 50 51 52 52 52 53 54 54 55 56 56 57 58 58 59 59 59 60 61 61 61 61
27 28 28 29 30 31 32 33 34 36 37 39 40 42 44 45 47 49 50 51 52 53 53 54 54 55 56 57 57 58 58 59 59 59 59 58 58 58 58 58 58 58 58
26 27 29 30 31 32 33 35 36 37 39 41 42 44 46 48 49 51 52 53 54 55 55 56 57 57 58 59 59 59 59 59 59 58 57 57 57 56 56 56 56 55 55
27 29 30 31 33 34 35 37 38 40 41 43 44 46 48 49 51 53 54 55 55 56 56 57 58 58 59 59 59 59 59 58 57 56 56 55 55 54 54 54 54 54 54
30 32 33 35 36 38 39 40 42 43 44 46 47 49 50 52 53 54 55 54 54 55 57 57 58 59 59 59 59 58 57 56 55 54 53 53 52 52 52 52 52 52 51
32 34 36 37 38 40 41 43 44 47 48 49 50 51 51 52 53 52 52 53 54 56 57 57 58 58 58 58 56 55 54 53 52 52 51 51 51 51 50 50 49 48 46
31 33 35 38 39 40 41 42 44 45 46 46 46 47 48 49 50 52 53 54 55 56 56 56 56 55 54 54 53 52 51 51 50 50 49 49 49 48 47 45 43 41 39
34 34 34 34 35 36 37 39 39 40 41 43 44 46 48 49 50 51 52 52 53 53 53 53 53 52 51 51 50 49 49 48 48 48 47 46 44 43 40 37 35 33 31
34 33 34 35 35 35 36 37 38 39 41 43 44 45 46 47 49 49 50 51 51 51 51 51 50 49 49 48 48 47 46 46 45 44 41 38 37 34 31 29 27 26 25
33 32 33 34 34 34 35 37 38 39 40 41 42 44 45 46 47 48 48 49 50 50 50 49 49 48 46 45 44 43 42 40 38 36 33 30 28 25 23 22 21 20 19
31 32 33 33 34 35 36 37 38 39 40 41 42 43 44 45 45 46 47 48 48 47 47 46 44 43 41 39 38 36 34 33 30 27 24 21 19 18 17 17 16 15 16
30 30 31 32 33 34 35 36 37 38 39 39 40 41 42 43 43 44 44 44 43 42 41 39 37 36 33 31 30 29 27 24 21 18 16 14 13 13 13 12 13 13 14
28 29 30 31 32 33 34 34 35 35 36 37 38 39 39 40 40 40 40 39 37 35 33 31 29 28 26 24 23 21 18 15 13 11 9 9 9 9 10 10 11 12 13
26 27 28 29 29 30 31 31 32 33 34 35 35 36 36 37 37 36 34 32 30 28 26 24 22 21 19 18 15 12 10 8 7 6 6 6 7 8 9 9 10 11 13
24 24 24 25 25 26 27 28 30 31 32 33 33 33 32 32 31 29 28 25 23 22 20 18 16 15 13 10 8 5 4 4 3 4 5 6 7 8 9 10 11 12 13
20 21 21 22 23 24 25 27 28 29 30 29 29 29 28 27 25 23 21 20 19 17 15 14 12 10 8 6 4 4 4 4 5 6 7 7 8 9 10 11 12 13 14

GEFSMW_500_meanwind_066.txt.gz
Wind_Speed
26 25 23 23 24 23 22 21 21 19 19 20 21 21 21 21 21 22 23 23 23 23 24 24 24 24 25 24 24 24 24 23 22 22 23 23 23 25 26 28 29 30 31
26 26 25 25 25 24 24 23 22 21 22 23 25 25 25 25 26 26 27 27 27 26 26 27 27 27 28 28 27 27 26 25 25 25 26 26 27 28 29 30 32 33 35
26 26 27 27 26 27 26 24 24 25 26 27 29 29 29 29 30 30 30 30 30 29 30 30 30 30 30 30 30 29 28 28 28 28 28 29 30 31 33 34 36 38 39
26 27 27 29 29 29 29 28 29 30 31 31 31 32 32 32 34 34 33 33 33 33 33 33 33 32 33 33 33 32 32 31 31 31 32 34 35 36 37 39 41 43 44
29 29 30 31 31 32 33 33 34 34 34 35 35 36 35 36 36 36 35 35 35 36 36 36 34 35 35 34 34 34 35 35 35 36 37 39 39 40 41 43 45 47 50
32 33 33 33 34 35 36 37 36 36 36 37 38 38 37 37 37 36 36 37 37 38 37 36 36 37 37 36 36 38 37 39 40 41 42 43 44 45 46 48 49 52 54
33 34 35 36 36 36 36 38 38 37 38 39 40 40 38 38 38 38 39 39 38 38 38 39 39 39 38 39 41 42 42 43 44 45 46 47 49 50 51 52 54 55 57
34 34 35 37 37 38 39 39 39 39 40 41 41 40 39 39 39 39 40 40 40 40 41 41 42 42 43 43 44 44 46 46 48 49 50 52 53 54 55 56 57 58 59
35 36 37 38 39 40 41 41 41 41 41 41 41 41 41 41 41 41 41 41 42 42 43 44 44 45 46 46 47 47 49 50 52 53 54 55 56 58 58 58 59 60 61
36 36 37 39 41 41 42 42 42 42 42 42 42 41 41 41 42 41 42 42 43 44 45 46 47 48 49 49 50 51 53 54 55 56 57 58 59 59 60 61 62 63 64
36 37 39 41 42 42 42 43 43 43 43 42 42 41 40 41 41 42 42 43 44 45 46 48 50 51 52 53 54 55 57 57 58 59 59 60 60 60 61 63 63 64 64
36 38 39 39 41 41 42 42 42 42 42 41 41 41 41 42 43 44 45 45 46 48 50 51 52 54 56 57 58 59 60 60 60 60 60 61 61 62 62 62 63 63 63
32 34 35 36 38 39 39 39 40 40 40 40 41 42 43 44 45 46 47 48 50 52 54 55 57 59 60 60 61 61 60 60 60 60 61 61 62 62 62 61 61 61 61
30 31 32 34 34 35 37 38 38 39 40 42 43 43 45 46 48 49 51 53 55 57 58 59 60 61 61 61 61 61 60 61 61 61 61 61 60 60 59 59 58 58 59
28 29 28 30 32 34 36 37 38 40 42 43 44 46 47 49 50 51 53 55 56 57 58 58 58 59 59 60 60 60 61 61 61 60 59 58 57 57 56 56 56 56 56
28 29 28 28 30 31 33 35 37 39 41 42 44 46 47 49 50 50 51 51 52 53 55 55 56 57 58 59 59 59 59 59 58 57 55 54 54 54 54 55 54 52 49
29 30 30 30 30 30 32 34 36 38 39 41 42 43 44 45 46 47 48 49 50 52 54 55 55 56 56 57 57 57 56 55 55 54 52 52 51 51 50 49 46 44 41
28 29 30 30 30 30 31 32 33 35 37 39 40 41 42 43 44 45 47 48 49 50 52 53 54 55 55 54 54 54 53 52 51 50 48 47 46 45 43 40 37 35 34
26 26 26 27 28 28 30 31 32 34 35 37 38 39 40 41 42 43 45 46 47 48 49 50 50 51 50 50 50 49 48 47 45 43 42 40 39 36 33 30 29 28 27
23 24 25 25 25 27 28 29 31 32 33 34 35 36 38 39 40 41 42 43 45 46 46 46 46 45 45 43 42 41 40 38 37 35 33 31 29 26 24 23 22 21 20
21 22 23 24 24 25 26 27 28 29 31 32 33 34 35 36 37 38 39 41 41 41 41 41 40 39 38 36 34 32 30 29 27 25 23 21 19 17 17 16 16 15 14
20 20 21 23 24 24 26 26 27 27 28 28 29 31 32 33 34 35 36 36 36 36 35 34 33 31 30 28 26 23 21 19 17 15 14 12 11 11 10 10 10 10 11
19 20 20 21 22 23 23 23 23 24 24 25 26 28 29 30 31 32 32 32 32 31 30 28 26 24 22 20 17 15 13 12 10 8 7 6 6 6 7 7 8 9 10
18 19 20 20 20 20 20 20 21 22 22 23 24 25 26 27 27 27 27 27 27 25 24 22 20 18 16 13 11 10 8 7 5 4 3 4 4 5 6 7 8 9 10
17 18 18 18 18 18 18 19 20 20 21 22 23 23 23 24 24 25 24 23 22 21 20 18 16 14 12 10 8 6 5 4 4 5 5 6 6 7 8 8 9 11 11
14 15 15 16 16 17 17 18 18 19 20 20 20 20 21 21 22 22 21 20 19 18 16 14 12 10 8 7 6 6 6 6 7 7 8 8 8 9 9 10 11 12 13

GEFSMW_500_meanwind_072.txt.gz
Wind_Speed
26 25 23 22 21 21 21 21 21 21 22 23 23 24 25 26 27 28 27 27 27 26 26 27 28 29 28 28 28 28 28 27 26 27 27 27 27 27 28 29 31 32 34
28 26 25 24 24 22 21 22 23 24 26 27 28 28 28 28 29 31 32 30 29 29 29 30 31 31 30 30 31 33 31 30 29 30 30 30 29 30 31 32 34 36 38
30 28 27 26 26 25 25 26 26 26 27 29 30 31 32 31 32 33 34 33 32 32 32 33 33 33 33 33 35 35 33 32 31 31 31 32 32 34 35 36 37 39 41
31 31 29 29 28 28 28 30 30 29 29 30 31 33 34 34 33 32 32 32 32 33 34 35 34 34 34 34 35 37 35 34 33 33 34 36 37 39 39 40 41 43 44
32 31 31 30 30 31 31 32 31 31 32 32 34 37 36 34 33 34 33 34 34 34 34 34 34 35 35 36 36 36 37 36 35 36 38 39 41 42 43 43 45 46 48
32 32 31 31 32 32 33 33 33 33 34 34 35 37 37 37 35 34 34 34 34 35 37 37 37 36 36 36 36 37 38 38 40 40 41 42 43 44 45 47 48 50 52
33 33 33 33 33 34 35 36 36 35 35 36 37 38 38 37 37 37 37 38 37 37 37 37 36 35 36 37 38 39 40 41 42 43 43 44 46 47 49 51 52 54 55
34 34 35 35 36 36 37 38 38 37 37 37 38 38 38 38 38 38 38 37 37 36 37 37 38 38 38 39 40 41 43 44 45 46 46 48 50 52 53 55 56 57 58
35 35 36 37 38 38 39 38 38 38 38 38 39 40 41 40 39 39 40 40 38 38 38 38 40 41 42 43 43 44 46 47 47 48 50 52 54 56 57 59 60 61 61
36 37 37 38 39 40 41 41 41 41 42 42 42 42 41 39 39 40 40 40 39 38 38 40 42 43 45 46 47 49 49 50 52 53 55 57 59 60 61 62 63 64 65
36 38 38 39 39 40 41 42 43 44 43 42 41 42 42 40 41 40 40 40 40 41 42 42 44 46 48 49 51 52 54 55 56 58 60 61 62 63 64 65 65 65 65
37 36 37 38 38 39 39 40 41 41 41 41 41 41 40 40 41 41 41 41 42 43 43 46 48 49 51 52 54 55 57 59 60 62 63 63 64 64 64 65 64 64 63
36 36 36 37 37 37 38 37 38 38 39 40 40 40 40 41 42 42 41 42 43 45 47 49 51 52 54 55 56 58 59 61 62 63 63 63 64 64 64 64 63 62 62
32 33 34 34 34 35 35 35 36 37 37 39 39 38 39 41 41 42 42 43 45 47 49 51 53 53 55 56 58 58 59 60 61 62 62 61 61 61 61 60 59 58 58
30 30 32 32 33 34 34 34 35 35 36 37 37 38 39 40 41 42 43 45 46 49 51 52 53 53 54 56 57 59 59 60 60 60 60 60 60 59 58 56 55 54 52
28 28 29 30 31 31 31 31 32 32 33 33 35 36 38 39 40 42 44 45 47 49 50 51 52 52 54 55 56 57 58 58 58 58 57 56 55 54 52 50 48 47 45
27 26 26 26 26 27 29 29 30 30 30 32 34 35 37 39 41 42 43 44 45 47 48 49 51 52 53 54 54 55 55 54 53 52 50 49 47 45 43 42 40 38 37
26 26 25 25 25 25 26 27 28 29 30 32 33 35 36 37 38 39 41 42 44 45 46 48 49 50 51 51 52 51 50 49 47 45 43 41 39 36 34 32 31 29 27
22 23 24 24 25 26 26 26 27 28 29 30 32 33 34 35 36 37 38 39 41 42 44 45 46 47 47 48 47 46 44 42 40 37 34 31 29 26 24 23 21 20 19
22 23 23 23 24 24 24 25 26 27 28 29 30 31 32 33 33 35 36 37 39 40 41 42 43 43 42 41 40 38 36 33 30 27 24 22 20 18 17 16 15 15 15
20 21 21 21 21 21 22 23 25 26 26 27 27 28 29 30 30 32 33 34 35 36 37 38 37 37 36 34 32 29 27 24 21 19 17 15 14 13 12 12 11 12 13
18 18 19 20 20 21 21 22 23 23 23 24 25 26 27 27 28 29 31 32 32 33 33 33 33 32 30 28 25 23 20 18 16 14 13 11 11 10 10 10 10 11 12
17 18 19 19 20 20 20 21 21 21 22 23 23 24 25 26 26 28 29 29 29 30 30 29 28 26 25 23 21 18 16 14 13 11 10 9 9 10 10 10 11 11 12
15 16 17 17 18 19 19 19 19 20 20 22 22 23 23 23 25 26 26 26 26 26 25 24 22 21 20 18 16 14 12 11 10 10 10 10 11 11 11 12 12 12 13
14 15 15 16 16 17 17 17 18 19 20 21 21 21 21 22 23 23 22 22 22 22 21 19 18 17 15 14 12 11 11 10 10 11 11 12 12 12 13 13 13 13 14
13 13 14 14 15 15 16 16 17 18 19 19 19 20 20 20 20 20 19 19 19 18 18 17 16 14 12 11 10 10 10 10 11 11 12 12 13 13 13 14 14 15 15

GEFSMW_500_meanwind_078.txt.gz
Wind_Speed
28 27 26 27 26 25 24 24 24 24 24 24 25 25 25 27 28 29 30 31 32 32 33 33 33 33 33 33 34 35 33 34 35 35 34 34 33 31 30 31 31 32 33
28 28 28 28 27 27 27 27 28 29 28 28 28 29 29 29 29 31 33 34 34 35 35 35 35 35 35 35 35 35 35 34 35 37 37 36 35 33 33 34 34 34 35
28 28 29 30 29 29 29 30 30 30 31 31 31 32 32 32 32 32 33 34 34 35 34 31 32 34 34 34 35 34 35 35 35 36 37 38 37 36 36 37 37 37 39
28 29 30 31 32 31 31 31 31 31 32 32 33 34 35 35 35 35 36 36 36 35 35 33 32 32 32 32 33 34 34 35 35 36 37 38 38 39 38 38 40 41 42
29 29 30 31 32 32 32 32 31 32 33 33 35 36 36 36 36 37 38 38 36 34 33 34 34 33 33 33 34 34 34 35 36 37 38 38 39 40 41 43 43 44 46
28 29 29 30 33 33 33 33 33 34 35 36 36 37 38 38 39 40 39 36 34 34 34 33 33 33 33 34 34 35 35 36 36 37 38 39 41 43 44 46 48 48 49
27 28 29 30 32 34 35 35 35 36 37 38 38 39 40 40 40 40 38 36 35 34 33 33 33 33 33 33 34 35 36 37 38 38 40 41 43 44 46 49 51 52 53
27 28 29 30 32 33 35 36 36 36 38 39 40 41 42 42 42 40 38 37 35 34 33 34 34 34 35 36 36 36 37 38 40 42 44 44 45 48 50 52 54 56 57
27 29 29 30 31 33 35 36 37 38 39 40 41 42 43 43 43 41 39 37 36 36 36 36 36 37 37 37 38 39 40 41 43 45 46 48 50 52 54 55 57 59 61
28 29 30 31 32 33 34 36 37 39 40 41 42 42 43 43 42 42 40 38 37 36 37 38 38 39 40 40 41 43 42 44 46 48 49 51 53 55 57 58 60 62 63
30 31 31 31 32 33 35 36 37 39 39 39 39 40 42 42 41 41 40 40 39 39 39 40 40 40 41 42 43 44 45 47 49 51 53 54 56 57 59 60 61 61 62
30 31 32 32 33 34 35 36 37 38 38 39 39 40 40 39 39 39 39 39 39 39 41 41 42 43 43 44 45 46 48 49 51 53 55 56 57 57 58 58 58 59 59
30 31 32 32 33 33 34 35 36 37 37 38 38 39 39 38 38 38 39 39 39 39 40 41 41 43 43 45 47 47 49 50 52 54 55 57 58 58 57 57 57 57 56
29 30 31 32 32 33 33 35 36 37 37 39 39 40 39 39 39 39 38 38 38 39 40 42 42 43 43 45 46 47 49 50 52 53 54 54 54 54 54 53 53 52 51
27 28 29 30 31 32 32 33 34 35 36 37 38 37 38 38 38 38 38 39 39 40 41 41 42 42 43 44 44 45 46 48 49 49 50 50 50 50 50 49 48 47 45
27 27 28 28 28 29 29 30 31 31 32 33 34 35 35 36 36 37 36 37 38 39 39 39 39 40 40 41 42 43 44 45 46 46 46 46 45 45 44 42 41 39 36
26 26 26 26 27 27 28 29 29 30 31 31 31 32 33 34 34 34 35 35 35 35 36 37 37 38 39 40 41 42 43 43 43 42 41 40 39 38 36 34 32 30 29
23 23 24 24 25 26 27 27 28 28 28 29 29 29 30 31 31 32 33 33 33 33 34 35 35 36 37 38 38 39 39 39 38 36 35 34 32 30 28 25 23 21 20
23 22 24 24 25 25 25 26 26 26 27 27 28 28 29 29 29 29 30 30 30 31 31 32 32 33 34 35 35 35 34 32 31 29 28 26 24 21 20 19 18 17 16
21 22 22 22 23 24 24 25 25 26 26 27 27 27 27 27 27 27 27 27 27 28 29 29 30 31 31 31 30 29 28 27 25 24 23 20 19 17 16 15 15 14 14
20 21 21 21 22 23 24 24 24 24 24 24 24 25 25 25 25 25 25 25 26 26 26 27 28 28 28 27 26 25 24 23 21 20 18 17 16 15 14 14 13 13 13
19 20 21 21 22 22 22 22 22 22 22 22 23 23 23 23 23 22 22 23 24 24 24 25 25 24 24 24 23 22 20 19 17 16 15 14 14 13 13 13 13 13 13
17 18 19 18 18 19 19 19 19 20 21 21 21 21 21 21 21 21 21 22 22 22 22 22 22 22 21 20 19 18 17 15 14 13 13 13 12 12 12 13 13 14 14
14 15 16 16 16 16 17 17 18 19 19 19 19 19 19 19 19 19 20 20 20 20 19 19 19 18 17 17 16 15 14 12 11 11 11 11 11 12 13 13 14 15 15
12 13 13 14 15 15 16 17 17 17 17 17 17 17 17 18 18 18 18 18 18 17 16 16 16 15 15 14 13 11 10 10 9 10 11 11 12 12 13 13 14 15 15
12 12 13 14 14 15 15 15 15 15 15 15 16 16 16 16 16 16 16 15 15 14 13 13 13 12 12 11 10 9 8 8 9 10 11 11 12 12 13 14 14 15 15

GEFSMW_500_meanwind_084.txt.gz
Wind_Speed
30 30 30 26 26 25 24 24 22 21 21 20 20 21 21 22 23 23 24 25 25 27 28 29 31 32 34 34 34 35 34 34 34 35 35 34 34 34 33 34 36 36 35
30 29 28 25 25 25 25 25 25 24 23 22 23 23 24 25 26 26 27 27 28 29 30 30 31 33 34 35 37 36 35 34 34 34 35 35 34 34 34 35 36 37 38
27 27 27 27 25 26 26 27 27 26 25 25 25 25 26 27 28 28 29 30 30 30 31 31 32 33 34 35 36 35 35 33 32 32 31 32 33 34 35 36 36 37 39
28 28 27 29 27 27 27 28 29 29 27 26 27 28 28 29 29 30 31 32 31 32 32 32 32 33 33 33 33 34 34 33 32 32 33 33 35 36 38 38 38 39 40
27 27 28 28 28 28 29 29 29 30 28 28 28 29 30 30 30 31 32 33 34 34 34 33 33 33 33 32 33 33 33 33 33 33 33 35 37 38 40 41 42 43 43
27 28 29 29 30 30 32 31 31 31 32 31 31 31 32 32 32 33 33 34 34 34 34 34 35 35 34 34 35 35 35 34 34 35 35 36 38 39 41 43 45 45 46
28 29 29 30 31 32 32 32 33 33 34 34 33 33 34 34 35 35 36 36 35 36 36 36 36 37 37 37 37 36 37 37 37 38 38 39 40 42 44 46 48 49 50
28 28 29 29 31 32 33 33 33 33 34 35 35 36 36 37 37 37 38 38 37 37 38 38 37 38 38 38 38 38 38 38 40 41 42 43 44 46 47 49 51 52 54
28 28 28 29 29 30 31 31 32 33 34 34 35 36 37 38 38 38 39 39 39 40 40 40 40 39 40 39 39 38 39 40 42 43 45 46 48 49 50 51 53 54 55
28 28 28 28 29 29 30 31 32 33 34 35 37 38 38 39 39 40 40 41 40 41 41 41 40 40 40 40 40 41 41 43 44 46 46 47 49 50 51 52 54 55 56
26 28 28 28 29 30 30 31 31 32 34 35 37 38 39 40 41 41 41 41 41 41 41 40 40 40 40 41 42 43 43 45 46 46 47 48 48 50 51 52 52 53 54
25 27 28 28 29 30 31 32 33 33 34 35 36 38 39 39 40 40 41 41 41 42 41 41 40 40 41 41 42 43 44 46 46 46 47 47 48 49 49 50 50 51 52
25 26 27 28 29 30 31 32 33 34 35 36 37 38 38 39 39 40 41 41 42 42 41 41 41 40 41 42 43 43 44 45 46 45 46 46 45 45 47 47 48 49 49
25 26 27 29 30 31 31 32 33 34 35 36 37 37 38 39 39 40 41 41 41 41 41 41 41 41 41 42 42 42 43 43 43 44 44 44 44 45 45 46 46 46 46
24 25 27 29 30 31 31 32 32 33 34 35 36 37 38 39 39 39 40 39 39 39 39 39 39 39 39 39 39 40 40 40 40 41 41 42 42 42 43 43 42 42 41
24 25 27 28 29 30 31 31 31 32 33 34 35 35 35 36 36 36 36 36 36 36 36 37 36 36 36 36 36 37 37 37 37 38 38 38 38 38 37 36 35 34 33
25 26 27 27 28 28 29 30 30 30 31 32 32 32 33 33 34 34 33 33 33 33 32 32 33 33 33 33 33 33 33 33 33 33 33 32 31 31 30 29 28 28 27
23 24 25 25 25 25 26 27 28 29 30 30 30 30 30 30 30 30 30 31 31 30 30 31 31 31 31 31 30 30 31 30 29 29 29 29 29 28 27 26 25 25 24
22 23 23 23 23 23 23 25 26 27 27 27 27 27 27 27 28 28 28 28 28 28 28 28 28 28 28 27 28 28 27 26 26 26 27 27 26 25 25 24 23 23 22
21 21 22 22 22 22 22 23 23 24 24 24 24 25 25 25 25 25 25 26 26 26 26 26 26 25 26 25 25 24 24 24 24 24 24 24 24 23 22 21 21 20 20
20 20 21 22 22 23 23 22 22 22 22 23 23 23 24 24 24 24 24 24 24 24 24 24 24 24 23 23 23 23 23 22 22 21 21 21 20 20 19 19 19 19 19
18 19 19 19 20 21 21 21 21 21 21 21 21 22 22 22 22 22 22 22 22 22 23 23 22 21 21 20 20 20 20 19 18 18 18 18 18 18 18 18 18 18 19
15 16 17 16 16 17 18 19 19 19 19 20 20 20 20 21 21 20 20 20 20 20 20 20 20 19 18 18 18 17 16 16 15 15 16 16 17 17 16 17 18 18 18
14 14 15 15 15 16 16 17 17 17 18 18 18 18 18 18 19 18 18 18 18 19 18 18 17 17 17 16 16 15 14 14 14 14 15 15 16 16 16 17 18 17 17
12 13 13 13 13 13 14 14 15 16 16 16 16 16 16 16 17 16 16 16 16 16 16 16 15 15 15 14 13 13 13 13 13 14 14 14 15 15 16 16 17 17 16
12 12 12 12 12 12 13 13 14 14 14 14 14 14 13 14 14 14 14 14 14 14 14 14 13 12 11 11 10 11 11 12 12 13 13 13 14 15 15 16 16 15 15

GEFSMW_500_meanwind_090.txt.gz
Wind_Speed
34 33 32 30 31 30 27 27 27 25 24 24 23 23 20 20 20 19 18 17 16 16 17 18 18 18 19 19 20 22 24 25 25 26 27 27 28 28 30 31 30 31 31
32 32 32 31 29 29 27 25 24 24 23 24 24 23 22 22 21 20 19 18 17 17 18 19 20 20 20 20 21 21 22 23 24 24 24 25 26 28 29 30 31 31 31
30 29 28 28 28 29 29 26 22 24 23 23 23 23 24 23 22 21 20 20 19 19 20 20 21 21 21 21 22 22 23 24 24 25 26 27 28 29 30 31 32 33 34
29 29 29 28 28 28 27 25 23 23 23 22 23 24 25 24 24 23 22 21 20 21 22 22 22 22 23 23 23 24 26 27 27 28 29 30 30 31 32 34 35 37 37
29 29 30 30 29 29 27 25 24 23 24 23 23 24 25 25 25 24 23 23 23 23 24 24 24 24 23 24 25 27 28 29 30 31 32 33 33 34 35 37 38 39 40
29 29 29 29 28 27 27 26 25 25 25 24 23 24 25 25 25 25 24 25 25 25 25 25 26 26 25 27 27 29 30 32 33 34 35 36 37 37 38 39 41 42 43
28 28 28 27 27 27 27 27 28 26 26 26 26 26 26 27 28 26 26 26 26 26 26 26 27 28 29 30 31 32 33 34 35 37 38 38 39 39 40 41 42 44 44
27 28 29 29 28 27 28 28 28 28 27 28 28 28 27 27 27 26 26 27 28 28 28 29 30 31 32 33 34 35 36 37 38 39 39 39 40 41 41 42 43 45 46
26 27 28 28 28 28 28 28 28 29 29 29 29 29 29 29 28 29 29 29 30 30 31 32 33 33 33 35 36 37 38 39 39 39 40 40 40 42 42 43 45 46 47
26 26 26 27 28 28 29 29 29 29 30 30 30 30 30 30 30 30 31 32 32 32 33 33 33 33 34 35 37 38 39 39 40 40 41 41 42 43 44 45 46 47 47
25 25 25 26 26 27 27 28 28 29 30 30 31 31 31 31 31 31 32 32 33 33 33 34 35 35 36 37 38 38 39 40 40 40 41 42 43 44 45 45 46 46 47
24 24 25 26 26 27 28 28 28 29 30 30 31 31 32 32 32 33 33 34 34 35 35 36 36 37 37 38 38 38 39 40 40 40 41 42 43 43 44 44 45 45 46
22 23 24 25 25 26 27 28 28 29 29 30 31 32 32 33 33 34 34 35 35 36 37 37 37 37 37 37 37 37 37 39 39 39 40 41 41 42 42 42 42 42 42
19 21 22 24 25 26 27 28 28 29 30 31 32 33 33 33 34 34 35 35 36 36 36 36 36 35 36 36 36 36 37 37 37 38 38 39 39 39 39 39 38 38 38
18 20 22 23 24 26 27 28 29 29 30 30 31 31 32 32 33 33 34 34 35 35 35 35 35 34 34 35 35 35 35 35 35 35 36 36 36 35 35 36 36 36 36
17 19 21 23 24 25 26 27 27 28 28 28 28 29 30 31 31 32 32 33 33 34 34 34 33 33 33 33 34 33 32 32 33 33 32 32 33 33 33 34 33 33 33
18 19 20 21 23 24 25 26 26 26 27 27 28 28 28 29 29 30 31 31 31 32 32 31 31 31 31 31 31 31 31 31 30 30 30 30 30 31 31 31 31 30 30
19 19 20 21 21 22 23 23 24 25 25 26 27 28 28 29 29 29 29 29 29 29 28 28 28 29 29 29 29 28 28 28 28 28 28 28 28 28 28 28 27 27 27
18 19 19 19 20 20 20 21 21 22 23 24 25 26 26 27 27 27 27 27 26 26 26 26 26 26 26 26 26 25 25 25 25 25 25 25 25 25 25 25 25 25 24
17 17 18 18 19 19 20 20 20 20 21 22 22 23 23 23 23 23 23 23 23 24 24 24 24 24 24 24 23 22 22 22 23 23 22 22 22 22 22 22 23 23 23
15 17 17 17 18 18 19 19 19 19 20 20 21 21 21 21 21 22 22 22 23 23 23 23 23 22 21 20 20 20 20 20 20 20 20 20 20 21 21 21 21 21 21
14 15 16 16 17 18 18 19 19 19 19 19 19 20 20 20 21 20 20 21 21 21 21 20 20 20 19 19 18 18 19 19 19 19 18 19 19 19 19 19 19 19 19
14 15 15 15 16 16 16 16 17 17 18 18 18 19 18 19 19 19 19 19 19 19 19 18 18 17 17 17 17 18 18 17 17 17 17 18 18 18 18 18 18 18 18
12 13 13 13 14 14 14 14 15 15 16 16 17 17 17 17 17 17 17 17 17 16 16 16 16 16 15 15 16 16 16 15 15 15 16 16 16 17 17 16 16 17 17
11 11 11 11 12 12 13 13 14 15 15 14 14 14 15 15 15 15 14 14 13 14 14 14 14 13 13 13 13 13 13 12 13 13 13 14 15 14 15 15 15 16 16
10 10 9 10 10 10 10 11 11 11 11 11 11 12 13 13 13 12 12 12 12 12 12 11 11 11 11 11 11 11 10 11 11 12 12 13 13 14 14 14 15 15 15

GEFSMW_500_meanwind_096.txt.gz
Wind_Speed
29 29 28 26 25 24 24 24 24 24 24 25 25 25 27 29 29 28 28 28 27 28 28 27 27 26 26 26 25 25 24 24 24 24 25 26 26 27 27 27 27 27 27
28 28 28 27 26 25 25 26 25 25 25 26 26 27 28 28 28 29 27 27 28 28 28 27 27 27 27 26 27 27 27 27 27 27 27 27 27 28 28 28 29 29 30
28 28 28 27 26 26 26 26 26 26 26 26 27 28 28 29 30 30 30 29 28 26 27 27 25 25 25 25 25 26 26 28 28 27 28 28 29 30 30 31 31 32 33
27 27 27 27 27 27 26 27 27 27 27 27 27 27 28 26 26 27 28 28 27 27 27 26 26 26 25 25 26 27 27 27 28 28 28 30 31 32 32 33 34 34 36
26 26 26 27 27 27 27 27 27 27 26 25 26 25 25 24 25 26 26 26 27 27 27 26 26 26 26 26 27 27 28 29 29 30 31 32 33 34 35 36 37 38 38
25 25 25 25 26 27 27 27 27 27 26 26 25 24 22 22 23 25 26 26 27 28 28 27 27 28 29 30 30 29 30 31 32 32 34 35 36 37 38 39 39 40 41
25 25 25 25 25 26 27 26 26 26 26 27 26 24 22 22 24 25 25 25 26 27 28 28 29 30 30 30 30 31 32 33 34 35 36 37 38 39 39 40 41 42 43
26 25 25 25 25 25 26 26 26 27 27 28 27 25 24 23 24 24 24 24 25 25 26 27 28 30 31 31 32 32 32 34 35 36 37 39 39 40 41 42 42 43 44
24 25 25 26 26 25 26 27 26 26 27 27 27 26 24 23 24 24 25 25 25 25 25 26 26 27 29 30 32 32 34 35 36 37 38 39 40 41 41 42 43 43 44
22 23 25 25 25 25 25 25 25 25 25 26 26 24 24 24 24 25 26 26 25 25 26 27 28 28 29 30 32 34 35 36 37 38 39 40 41 41 42 42 43 44 45
23 24 25 26 25 25 25 25 25 24 24 24 25 25 24 25 25 26 26 26 26 27 28 29 29 30 32 33 34 36 36 37 38 39 40 40 41 42 43 43 44 44 45
20 22 23 24 24 24 25 25 24 24 25 25 25 25 25 25 25 25 26 26 26 27 28 29 30 31 32 33 34 34 35 37 38 39 39 40 40 41 42 42 43 43 43
17 19 21 22 24 24 25 25 25 24 24 25 25 25 25 25 25 25 26 26 26 28 28 28 29 30 31 32 33 34 36 37 37 38 38 39 40 40 41 41 41 41 41
15 15 17 19 20 22 23 24 24 24 24 25 25 25 25 25 26 27 27 27 27 28 28 28 29 30 31 32 34 34 35 35 35 36 37 37 38 38 39 39 39 39 38
13 13 15 17 18 20 21 22 23 24 24 24 24 24 24 25 25 26 27 27 27 27 28 29 30 31 32 33 34 34 34 34 34 35 35 36 36 36 36 36 36 36 36
13 14 15 16 18 19 21 22 22 23 23 23 23 23 23 23 24 25 26 26 27 28 29 30 30 31 31 32 32 32 32 32 32 33 33 33 33 33 33 33 33 32 32
13 14 15 16 17 18 19 20 22 22 22 22 23 23 23 23 23 24 25 26 26 27 28 29 29 30 30 30 30 30 29 29 30 30 30 30 30 30 30 29 28 28 28
13 14 15 16 17 17 18 19 20 21 22 22 22 22 22 23 23 24 24 24 25 25 26 27 27 27 27 27 27 27 27 27 27 27 27 27 26 26 25 25 25 25 25
13 14 15 16 16 17 18 18 18 19 19 20 20 21 22 22 23 23 23 24 24 25 25 25 25 25 25 25 25 25 25 25 24 24 24 23 23 23 23 23 23 23 23
13 14 15 15 16 16 16 17 17 18 18 18 18 19 21 22 22 22 23 23 24 24 24 24 23 24 24 23 22 22 22 22 21 21 22 22 22 22 21 21 22 22 21
13 13 15 15 15 16 16 16 16 16 17 17 18 19 20 20 20 20 21 21 21 21 21 21 21 21 21 20 20 20 20 20 20 20 20 20 20 20 20 20 20 20 19
13 14 14 15 15 15 16 16 16 16 17 17 17 17 18 18 19 18 19 19 19 19 19 19 19 18 18 18 18 17 17 18 18 17 17 17 17 17 17 17 18 18 17
12 13 14 15 14 14 15 15 15 16 16 15 16 16 16 17 17 17 18 18 18 18 17 17 17 16 16 15 15 15 15 15 15 15 15 15 15 15 15 16 16 16 16
11 12 13 13 13 13 13 14 14 14 15 15 15 15 15 15 15 16 16 16 16 16 15 15 14 13 12 12 12 12 13 13 13 14 14 14 13 13 14 14 14 14 14
10 10 10 10 10 11 11 12 12 12 13 13 13 13 13 13 13 13 13 13 13 12 12 12 11 10 10 10 10 11 11 12 12 12 12 12 12 13 13 13 13 13 13
9 10 10 10 10 10 10 10 10 10 10 11 11 11 11 11 11 11 11 11 10 10 9 9 8 8 8 9 10 10 10 10 11 11 11 12 12 13 13 12 12 12 12

GEFSMW_500_meanwind_102.txt.gz
Wind_Speed
30 30 30 31 31 30 28 27 26 25 25 25 25 24 24 24 25 26 27 28 28 28 29 27 27 29 30 30 31 31 30 30 31 30 30 30 30 30 30 31 31 31 31
29 30 31 31 31 30 29 28 27 26 26 26 25 25 26 27 27 28 28 28 28 29 28 28 28 30 31 31 31 32 32 32 32 31 31 30 31 31 32 32 33 34 33
28 30 31 31 31 31 30 29 28 27 27 28 28 27 27 28 28 28 29 28 28 29 30 30 31 32 32 32 32 32 33 33 33 33 33 33 33 33 32 34 35 35 34
27 28 30 30 31 31 30 29 29 29 29 29 30 28 27 27 27 28 29 29 29 30 32 32 33 33 33 33 33 33 33 33 33 33 33 33 33 33 33 33 34 34 35
27 28 29 30 30 31 30 30 30 31 31 30 30 29 28 28 27 27 28 30 30 30 31 33 33 33 34 33 33 33 34 33 34 34 33 33 34 34 34 34 35 36 36
25 27 28 29 29 30 30 30 31 31 31 30 30 30 30 29 28 28 28 29 31 32 33 34 35 35 34 34 34 34 35 34 34 35 35 35 35 35 36 36 36 37 37
23 24 26 28 29 29 30 30 31 31 31 31 30 31 31 30 29 28 28 28 29 31 32 33 34 35 35 34 35 36 36 35 35 36 36 36 37 37 38 39 39 40 40
23 23 24 25 27 28 29 30 30 31 31 31 30 30 29 28 27 27 27 26 26 28 29 31 33 34 34 34 35 35 35 35 35 36 36 37 38 39 39 40 41 42 42
20 23 24 25 26 27 28 28 29 30 31 31 31 30 27 27 27 26 26 26 27 27 28 28 29 31 32 32 33 33 34 35 36 37 37 38 39 40 40 41 42 42 42
18 20 23 26 26 26 27 28 28 29 30 31 30 29 28 28 27 27 27 26 25 25 25 26 27 29 31 31 32 33 34 35 35 37 38 39 40 41 41 42 42 42 42
18 19 21 23 25 26 27 28 28 28 28 29 29 29 28 28 27 26 26 26 26 27 27 28 28 28 29 30 30 32 34 34 35 37 38 39 40 40 41 41 41 42 42
17 18 19 21 23 24 26 27 27 27 27 27 27 26 27 27 27 27 26 25 26 27 28 28 29 29 29 29 30 32 32 34 35 35 36 37 38 39 40 40 41 41 41
15 16 18 20 21 22 23 24 25 25 25 26 26 26 26 26 27 27 27 26 26 27 27 28 28 28 28 28 30 31 31 33 34 34 35 36 37 38 38 38 39 39 39
15 15 16 19 20 21 22 23 23 24 25 24 24 24 24 24 25 25 25 26 26 26 27 27 27 27 27 28 30 30 31 32 34 35 36 36 37 36 37 37 37 37 38
15 15 16 18 20 20 21 21 21 23 23 23 24 24 24 24 24 24 25 25 25 26 26 27 27 27 27 28 29 30 31 32 33 33 33 34 34 34 34 34 35 35 35
14 14 15 16 17 18 19 20 20 21 21 22 22 22 22 22 23 24 24 24 24 24 26 27 28 28 28 28 29 30 30 31 31 31 31 31 32 32 32 32 33 32 32
13 13 14 14 15 16 17 18 18 19 20 20 21 21 22 22 22 22 23 23 24 24 25 26 27 27 27 28 28 28 28 29 29 29 30 30 30 29 29 29 30 30 30
14 13 13 14 14 15 15 17 17 18 18 18 19 20 21 21 21 21 22 23 24 24 25 25 25 26 26 26 27 27 27 27 27 27 27 27 27 27 27 27 27 27 26
12 12 12 12 13 14 14 15 15 15 17 17 18 18 19 19 20 21 21 22 23 24 24 24 24 25 25 25 25 25 25 25 24 24 24 24 24 25 25 24 23 23 23
11 11 11 11 12 12 12 14 14 14 14 15 16 17 18 19 20 20 20 21 22 22 22 23 23 23 24 23 23 22 22 22 22 22 21 22 22 22 21 20 20 20 20
10 10 10 10 10 10 10 11 12 12 12 13 14 15 16 17 18 18 19 20 20 21 21 21 22 22 22 21 20 19 19 19 19 19 20 20 19 19 18 18 18 18 18
9 9 9 10 10 10 10 10 10 10 11 11 11 12 14 15 15 16 17 17 18 19 19 20 20 20 20 19 18 17 17 17 17 17 17 17 16 16 16 16 16 15 15
7 8 8 8 9 9 9 9 10 10 10 10 10 11 11 11 12 13 13 14 15 16 16 16 16 16 16 16 15 15 15 15 15 15 15 14 14 14 14 14 14 13 13
7 7 7 8 8 8 8 8 8 8 9 9 9 10 11 11 11 12 12 12 11 12 12 12 12 13 13 13 13 13 13 13 13 13 12 12 12 13 13 13 12 11 10
6 5 6 6 6 7 6 6 7 7 7 7 8 8 9 9 9 9 9 9 9 9 9 9 10 10 10 10 11 11 11 11 11 11 11 11 11 11 11 11 10 9 8
6 6 6 6 6 6 6 5 5 6 6 6 7 7 8 8 8 7 7 7 7 7 8 8 8 8 8 8 8 8 8 8 8 9 9 9 10 9 9 8 8 8 7

GEFSMW_500_meanwind_108.txt.gz
Wind_Speed
29 31 31 32 33 34 34 32 32 32 31 30 27 24 24 24 25 26 26 26 27 27 28 27 27 28 28 27 27 27 28 28 29 28 27 28 29 30 30 30 31 31 31
29 30 31 32 33 34 34 34 34 33 32 30 27 26 25 25 24 25 26 27 28 29 27 28 29 29 29 29 29 29 30 30 30 30 30 30 30 30 31 32 32 32 32
28 29 30 30 32 33 34 34 33 33 32 30 29 27 27 27 27 25 25 27 28 30 31 30 30 31 31 31 31 30 31 31 31 31 32 32 32 32 33 33 34 34 35
25 27 28 29 30 32 33 33 34 33 32 32 32 30 27 27 28 27 27 27 28 29 30 30 31 32 32 31 31 32 32 32 33 34 34 34 34 34 34 35 36 35 36
24 25 27 29 30 31 32 33 34 34 33 32 32 31 30 30 28 28 29 29 29 28 28 29 30 32 33 32 33 33 33 33 35 35 36 36 36 36 37 37 37 38 38
24 25 26 28 29 29 31 32 33 33 34 34 33 32 31 31 30 29 30 30 30 29 29 29 30 33 34 34 34 35 36 36 36 36 36 37 37 37 38 38 39 39 39
23 24 26 27 28 29 31 32 32 33 33 33 32 32 31 31 31 31 31 30 30 30 30 30 30 32 33 34 34 36 37 37 38 37 37 38 39 39 39 40 40 40 40
22 24 25 27 28 29 31 32 32 33 33 33 33 33 33 32 32 32 32 32 31 31 31 31 31 32 32 33 34 34 35 37 38 38 38 39 39 39 40 40 40 40 40
22 23 24 26 28 29 30 31 32 33 34 33 32 32 32 32 32 32 32 32 31 31 31 32 32 32 31 31 31 33 34 35 36 37 38 38 39 39 39 40 40 41 41
21 23 24 25 26 27 27 29 29 30 30 31 32 31 31 31 31 31 31 30 30 30 29 29 29 29 30 31 31 31 32 34 34 35 35 36 37 39 39 39 40 41 42
21 23 23 24 25 26 27 28 28 29 30 30 31 31 30 30 30 30 30 30 30 29 28 28 28 27 28 28 29 29 30 31 32 33 34 35 35 36 37 38 38 39 40
21 22 23 24 24 25 26 27 27 28 29 30 30 31 30 30 30 29 29 29 29 29 29 28 29 28 27 28 29 29 30 30 31 32 32 33 34 34 35 35 36 37 38
21 22 23 23 24 25 25 26 28 28 29 30 30 30 30 31 30 29 29 29 28 28 29 28 28 27 27 28 28 29 29 29 29 30 30 31 32 32 33 33 34 35 36
21 22 22 23 24 24 24 25 26 27 28 29 30 30 30 30 29 28 28 28 29 29 29 27 27 27 27 27 27 28 28 27 27 27 28 29 29 30 31 32 33 33 34
21 22 22 22 23 23 24 24 25 25 25 26 27 29 29 28 28 27 27 28 27 26 25 26 26 26 26 26 26 26 26 26 26 26 27 28 28 29 30 30 31 31 32
22 22 22 23 23 23 23 23 23 23 24 24 24 24 25 24 25 26 26 25 25 24 24 24 24 24 25 25 25 25 25 25 25 26 26 27 28 29 29 29 30 30 29
21 21 21 21 21 21 22 21 21 21 21 21 21 22 22 22 22 22 22 22 23 23 23 23 24 23 22 22 23 23 23 23 24 25 25 26 27 28 28 28 28 28 28
20 21 21 20 20 20 20 19 18 18 19 19 19 19 19 19 19 19 20 20 20 20 20 20 20 20 20 21 22 23 23 24 24 25 25 25 25 26 26 26 26 26 25
19 18 17 17 16 15 15 16 17 16 15 16 16 16 16 16 16 16 17 18 18 18 18 19 19 19 20 20 21 21 22 23 23 24 24 24 24 24 24 24 24 23 22
16 16 15 14 13 13 13 13 13 12 13 14 13 13 13 13 14 14 15 15 15 15 16 18 19 20 21 21 21 21 21 22 21 22 22 22 21 21 21 21 21 20 19
15 13 13 12 12 12 12 11 11 11 11 11 11 11 12 13 13 13 14 14 15 16 17 17 18 19 20 20 20 20 20 20 20 20 20 20 20 19 18 18 18 18 17
12 11 10 10 10 10 9 8 8 8 8 8 9 10 11 12 12 13 13 14 15 15 16 16 16 17 17 17 18 19 18 18 18 18 18 18 17 17 17 16 16 15 15
9 8 8 9 8 8 8 8 7 7 6 7 8 9 11 11 12 12 12 13 14 14 14 15 15 16 16 16 16 16 17 16 16 17 16 16 16 16 15 14 13 13 13
8 7 7 7 8 8 8 8 8 7 7 8 8 8 9 10 10 11 12 12 12 13 13 13 13 14 15 15 15 15 14 14 14 14 14 14 14 13 12 12 12 11 11
7 7 7 7 7 7 8 8 7 7 7 8 8 9 9 9 9 9 9 9 9 9 10 11 12 13 13 12 12 12 12 12 11 12 11 11 11 11 11 11 11 10 10
7 7 7 7 7 6 7 7 7 6 7 7 7 8 8 7 7 7 7 7 7 8 8 9 9 9 9 9 9 9 10 10 9 9 9 9 9 9 9 9 9 9 8

GEFSMW_500_meanwind_114.txt.gz
Wind_Speed
25 27 28 29 30 31 31 31 31 32 30 29 30 28 28 27 25 25 26 25 24 25 25 26 26 26 26 25 25 26 26 25 25 26 26 26 27 26 26 26 26 25 26
25 27 28 29 29 29 30 30 30 31 31 30 29 29 29 27 27 25 25 24 24 23 26 27 27 26 26 27 26 26 26 27 26 27 28 28 28 28 28 28 28 27 27
24 26 27 28 28 29 30 30 29 29 30 30 30 29 29 28 26 25 25 24 23 22 23 25 25 24 23 25 26 27 26 26 26 26 27 28 29 30 30 30 30 30 29
22 23 25 26 27 28 28 29 29 29 29 30 29 29 28 27 26 24 23 22 23 24 24 24 25 24 25 25 25 25 27 27 27 27 27 28 29 30 31 32 32 32 32
22 24 25 25 27 28 28 28 28 28 29 29 29 30 30 29 28 27 25 23 24 25 24 24 24 25 26 26 26 27 28 28 29 30 31 31 30 30 32 32 33 34 34
22 23 24 24 25 26 27 26 28 28 28 28 29 29 29 29 28 27 26 26 26 25 24 25 25 25 26 27 28 29 29 28 29 30 32 32 32 32 33 34 34 35 36
22 22 22 22 23 24 24 25 26 27 27 28 27 28 28 28 29 28 28 27 27 27 25 25 25 25 25 26 28 29 30 30 31 32 32 34 34 34 35 35 35 35 36
19 19 19 21 22 24 24 25 25 25 26 27 28 28 29 30 29 29 28 28 27 27 28 28 27 26 25 26 27 29 30 31 32 33 34 33 34 34 34 34 35 36 37
16 18 19 21 22 24 24 25 25 26 26 27 27 28 28 28 28 28 27 26 26 26 26 27 27 26 25 26 27 28 29 29 30 31 31 33 34 35 35 36 36 36 36
17 18 19 20 21 22 23 24 25 25 26 26 26 26 27 27 27 27 27 26 24 24 25 25 26 25 24 23 24 26 27 28 29 30 31 32 34 35 34 33 35 35 36
17 18 19 20 21 21 21 23 22 23 24 24 25 26 26 26 26 26 25 25 25 25 25 24 24 24 24 23 24 25 26 27 28 29 30 31 31 31 31 32 33 35 35
17 18 19 20 21 21 21 22 22 23 23 24 24 25 25 26 26 25 25 25 25 24 24 24 24 24 24 24 24 24 25 26 27 28 29 29 29 29 29 30 32 33 33
19 19 19 20 21 21 22 22 23 23 23 24 24 25 25 26 26 25 25 24 24 24 24 23 23 23 23 23 24 25 25 25 26 26 27 27 27 27 28 29 29 30 31
20 20 20 20 20 21 21 22 22 22 22 22 23 23 24 24 25 25 25 24 24 24 24 23 23 23 23 24 24 24 25 25 25 25 25 25 26 27 27 27 27 27 28
21 21 21 21 21 20 20 21 21 20 21 21 22 22 22 23 23 23 23 23 23 22 22 23 23 23 23 22 22 22 23 23 23 24 24 25 25 25 25 25 25 25 26
20 20 20 20 20 20 20 19 19 19 19 20 20 21 21 21 21 21 21 20 20 20 21 21 21 21 21 21 21 21 22 22 23 23 23 23 22 22 22 23 23 24 25
21 21 20 20 20 19 18 18 17 17 16 16 17 17 17 17 17 17 18 18 18 19 19 20 19 19 20 19 19 20 20 21 22 22 21 20 20 21 21 22 22 23 24
20 19 19 18 17 16 16 15 15 14 14 13 13 12 13 12 13 14 14 14 15 15 16 17 17 17 18 18 19 19 19 19 19 19 19 20 20 20 21 21 22 22 22
18 18 17 16 15 14 14 14 13 13 12 11 11 10 11 11 11 12 12 12 12 12 13 14 15 16 16 18 18 18 17 18 18 18 18 19 19 19 20 20 20 20 20
16 16 15 13 12 12 11 11 11 10 10 9 9 9 9 9 9 9 9 9 10 10 11 12 13 13 14 15 15 15 15 15 16 17 18 18 18 18 18 18 18 18 17
15 14 13 11 9 9 8 8 7 7 7 6 7 7 7 7 7 6 7 7 8 9 10 11 12 12 12 13 13 13 14 14 15 15 15 16 16 16 16 16 16 16 16
13 11 10 8 7 7 7 6 5 5 5 5 6 6 5 5 5 5 6 6 7 8 8 9 10 10 11 11 12 13 13 13 13 13 14 14 15 15 15 14 14 14 14
11 9 7 7 7 6 6 5 4 4 3 3 3 3 4 4 5 5 5 6 6 6 7 8 8 9 9 10 10 10 11 11 12 12 12 12 12 12 13 13 13 13 13
9 8 6 6 6 5 5 5 4 4 4 3 3 3 3 3 3 3 3 4 4 5 6 6 7 7 7 7 8 8 9 10 10 11 11 11 11 11 11 11 11 11 11
8 7 6 6 5 5 5 5 5 4 4 3 3 3 3 3 3 3 3 3 4 4 4 4 5 5 6 6 6 6 7 8 8 9 9 9 9 10 10 9 9 9 9
8 7 7 6 6 6 6 5 5 5 4 4 4 3 3 3 3 3 3 3 3 3 3 4 4 4 4 5 5 5 6 6 6 6 7 7 8 8 7 7 7 7 6

GEFSMW_500_meanwind_120.txt.gz
Wind_Speed
24 26 26 27 27 27 28 28 28 28 28 27 28 28 28 29 30 30 29 28 28 27 28 28 28 28 28 28 27 26 27 26 26 27 26 26 26 26 26 26 27 27 27
24 25 26 27 27 27 27 27 27 27 27 27 27 27 27 26 28 29 29 29 28 27 27 27 27 27 28 30 30 28 28 28 27 27 28 28 27 27 28 28 29 29 29
23 24 25 25 25 26 27 26 25 25 26 27 26 26 27 26 26 27 28 28 27 26 26 27 27 28 29 30 30 29 30 30 29 29 29 29 29 29 30 29 29 30 31
24 24 25 24 25 26 27 26 25 25 26 26 27 27 26 25 25 26 27 28 28 27 26 26 27 29 29 30 30 31 31 31 31 30 30 30 30 30 30 31 31 31 31
25 25 25 25 25 26 26 26 25 26 26 26 27 26 25 25 25 25 26 25 25 26 26 26 26 28 30 30 30 29 29 29 29 29 29 30 31 31 31 31 31 32 32
24 24 24 25 25 26 26 25 25 26 26 26 26 25 25 25 25 25 24 24 24 25 25 26 26 28 29 29 30 29 30 30 30 30 31 31 30 31 32 32 33 33 33
21 21 22 23 23 24 25 24 25 25 25 26 26 25 25 25 25 25 24 24 25 26 26 27 27 28 29 30 31 30 30 30 30 31 31 31 31 32 33 33 33 34 35
20 20 20 21 22 22 22 23 24 24 25 26 26 27 26 26 26 26 25 25 26 26 26 27 28 28 28 29 29 29 30 30 30 31 31 32 34 33 34 34 35 35 36
19 19 19 20 21 21 21 22 23 24 25 25 26 27 25 25 25 25 25 25 25 25 25 26 28 28 27 28 29 29 29 29 31 31 32 33 33 34 35 35 35 36 36
18 18 19 19 19 20 21 22 23 24 25 25 25 25 25 26 26 26 26 26 25 25 26 26 26 26 27 27 28 28 28 29 29 30 31 32 34 34 35 35 36 36 37
18 19 20 20 21 21 21 22 24 24 25 25 25 26 26 26 25 25 26 27 27 26 27 27 26 26 26 27 27 27 28 28 29 29 30 31 32 32 33 35 35 35 36
19 20 21 22 22 22 23 23 24 25 25 25 25 25 25 25 25 26 27 27 27 27 27 27 27 27 27 27 27 27 27 28 28 28 30 30 30 31 32 33 33 34 34
21 22 22 22 23 24 24 25 25 25 25 25 24 24 24 24 25 25 25 25 26 26 26 27 27 27 27 27 27 28 28 27 28 28 28 28 29 29 30 30 31 31 31
23 23 23 24 24 24 25 25 25 25 25 24 24 24 24 24 24 24 24 24 24 24 25 26 26 26 26 26 26 26 27 27 27 27 26 27 27 28 28 29 29 29 30
24 24 25 25 25 24 24 24 24 24 24 23 23 22 22 22 22 22 22 22 22 23 24 24 24 24 24 24 25 25 25 24 24 25 25 25 25 26 27 27 27 27 28
25 25 25 25 25 24 24 23 22 22 22 22 21 20 20 19 19 19 19 19 20 20 21 22 23 23 23 23 23 22 22 22 22 23 24 24 24 25 25 25 25 25 26
24 25 25 24 24 23 22 21 20 20 20 20 19 18 17 16 16 16 16 16 17 18 19 19 20 21 22 22 22 22 21 22 22 22 22 22 23 23 23 23 23 23 23
24 24 24 23 22 21 20 19 19 18 17 16 16 15 15 15 15 14 14 14 15 16 17 18 18 19 19 19 19 19 20 21 21 21 21 21 21 22 22 22 22 21 22
23 23 22 21 20 19 18 17 16 15 14 14 13 12 13 13 13 13 13 14 13 13 14 15 16 16 17 17 17 18 19 20 20 20 20 20 21 20 20 20 21 21 22
21 20 20 19 18 17 15 14 13 12 12 11 11 10 10 11 11 10 11 11 11 10 11 11 12 14 14 15 16 17 17 17 17 18 19 19 19 18 18 19 19 19 20
19 18 17 16 14 13 12 11 10 10 10 9 9 9 9 8 8 8 8 9 8 8 9 9 10 11 11 12 13 13 14 14 14 15 15 16 15 16 16 16 17 17 17
17 15 14 12 11 10 9 9 9 8 8 7 7 6 7 7 7 6 6 6 7 7 7 7 8 9 9 9 10 11 10 11 11 12 13 13 14 13 14 14 14 14 15
14 12 11 10 8 7 6 6 6 5 5 4 4 3 3 3 3 4 4 5 5 5 5 4 5 6 6 7 7 8 9 9 10 10 11 12 12 12 12 12 13 13 13
11 10 9 8 7 6 6 5 5 4 4 3 3 3 3 3 3 3 3 3 2 2 2 2 3 4 4 4 5 5 6 7 8 9 9 9 9 10 10 11 11 11 11
9 8 7 6 5 5 5 5 5 5 4 4 4 4 3 3 3 3 4 3 3 2 2 2 2 2 2 3 3 4 5 6 7 7 7 7 8 8 8 8 8 8 8
8 7 6 6 6 6 6 6 6 6 6 5 5 5 5 5 5 5 5 5 4 4 4 4 4 4 3 3 3 4 4 4 4 4 5 5 6 6 6 6 6 6 6

GEFSMW_500_meanwind_126.txt.gz
Wind_Speed
22 23 23 24 23 23 24 24 24 25 25 25 24 25 26 27 27 27 28 28 28 29 29 29 29 29 29 29 29 29 29 29 29 29 28 28 28 28 28 27 27 28 29
23 23 24 24 24 25 25 25 24 25 25 25 25 24 25 27 28 28 29 30 30 30 30 31 30 29 30 30 29 30 31 31 31 31 31 30 30 31 30 30 31 31 31
23 23 24 25 25 26 26 26 25 26 25 25 26 26 25 26 27 28 29 29 30 30 30 31 31 30 30 29 30 30 31 31 32 32 32 31 31 32 32 32 33 33 33
22 23 24 25 26 27 27 27 27 27 27 26 26 26 27 26 26 27 28 28 28 29 29 30 31 31 30 29 29 29 30 31 31 33 34 34 33 34 34 34 34 35 35
22 23 24 25 26 26 27 27 27 28 28 28 27 27 27 27 27 27 27 27 27 28 28 29 29 30 30 30 30 30 31 31 32 34 35 35 35 35 35 36 36 36 36
21 23 24 24 24 25 26 26 27 28 29 29 28 28 28 28 28 28 28 28 28 28 28 28 29 30 30 31 32 32 32 33 34 34 35 36 36 36 36 37 37 36 36
21 21 22 22 23 23 24 25 26 27 28 28 28 28 28 28 28 28 28 29 28 28 29 30 30 30 32 32 33 33 34 35 35 35 36 36 36 36 37 37 36 36 36
19 19 20 21 22 22 23 24 25 25 26 27 27 27 28 28 28 28 28 29 28 28 29 30 30 31 32 33 34 33 33 34 35 36 36 37 37 36 36 37 36 37 37
18 18 19 20 20 21 22 23 24 25 26 26 27 26 27 28 28 28 29 29 29 29 29 29 31 31 31 32 33 33 34 34 34 34 36 36 36 36 36 36 36 36 37
17 18 19 19 19 20 21 22 23 24 25 25 26 27 27 28 28 28 29 29 29 30 30 30 31 32 32 32 32 33 34 35 35 35 35 36 36 36 36 36 37 38 38
18 19 20 21 21 21 22 23 24 24 25 26 26 27 28 28 28 28 29 29 29 30 30 30 31 31 31 32 32 31 31 32 33 34 34 33 34 36 37 36 37 38 38
19 20 21 22 23 23 24 24 25 25 25 25 26 27 27 27 28 28 29 29 29 29 29 29 30 30 31 31 32 31 31 31 32 32 33 33 34 35 35 35 36 36 36
22 22 23 24 24 25 25 25 26 26 26 26 26 26 26 26 27 28 27 27 28 28 28 29 29 30 30 31 31 31 30 30 30 31 32 32 33 34 33 34 34 34 33
23 24 24 25 25 26 26 26 26 26 26 26 25 25 25 25 25 25 25 25 25 25 25 26 27 28 28 28 29 30 30 30 29 29 29 29 30 30 31 31 31 31 32
24 25 25 26 26 26 26 26 26 25 25 24 23 23 23 22 22 23 23 22 22 22 23 23 24 25 25 26 26 27 27 27 26 27 27 27 27 27 28 27 28 29 29
26 26 26 26 26 25 25 26 25 24 23 22 22 21 20 20 19 20 20 20 20 20 20 21 21 21 22 23 23 23 24 24 23 24 24 24 24 25 25 25 25 26 26
26 26 25 25 25 25 25 24 23 22 21 21 20 19 17 16 16 16 17 18 18 19 19 19 20 20 20 21 21 21 21 21 21 21 21 22 23 22 22 22 23 23 23
25 24 24 24 24 24 23 21 20 20 20 19 18 17 16 16 15 15 15 15 16 16 16 16 17 17 18 18 18 18 19 19 18 19 19 18 18 19 19 19 19 20 21
23 23 22 22 21 20 19 18 18 18 17 16 15 14 14 14 13 13 14 13 13 14 15 14 14 14 15 15 15 15 16 16 16 16 17 16 15 16 16 16 17 18 18
21 20 19 19 19 18 17 16 16 15 14 13 12 12 12 11 11 10 11 11 11 11 11 11 11 11 12 12 12 13 12 13 14 14 14 13 13 14 14 14 15 16 16
19 17 17 17 16 16 15 14 13 12 10 9 9 9 9 8 8 7 7 8 8 8 8 8 8 8 8 9 10 10 10 10 10 11 11 11 12 12 12 12 12 12 13
16 15 15 14 13 13 13 11 10 8 7 6 6 6 6 5 5 5 5 5 5 6 5 5 6 6 6 6 7 7 7 6 7 7 8 9 10 10 10 10 10 10 11
14 13 12 12 11 11 10 9 7 6 5 4 3 3 3 3 3 2 2 3 3 4 4 4 4 4 4 4 5 5 5 5 6 6 7 7 7 7 8 8 8 9 9
12 11 10 9 9 9 8 7 6 5 4 3 3 3 2 2 2 2 2 2 1 1 2 1 2 2 1 1 2 2 2 2 3 4 4 4 4 4 5 6 6 6 7
10 10 9 8 7 7 7 7 6 6 5 5 5 5 5 5 5 4 5 5 4 4 3 3 3 3 3 3 2 2 1 1 1 1 1 1 1 1 2 3 3 4 5
9 9 8 7 7 7 7 7 7 7 7 7 7 7 7 7 7 7 7 7 7 7 6 6 6 5 5 5 5 5 5 4 4 3 4 4 3 3 2 3 4 3 3

GEFSMW_500_meanwind_132.txt.gz
Wind_Speed
20 21 21 22 23 24 24 25 25 26 27 27 27 27 27 27 27 27 28 28 28 29 30 30 31 32 31 30 30 30 30 29 29 28 27 27 28 28 28 27 27 28 28
20 21 21 22 23 24 24 26 26 26 27 28 28 28 28 28 28 28 28 29 29 30 30 30 30 31 31 31 31 31 31 30 31 29 29 28 28 28 30 30 30 30 30
20 20 21 21 23 24 25 26 27 28 28 29 29 29 30 29 29 29 29 30 29 29 30 31 30 30 31 32 32 33 32 31 31 31 30 30 29 30 31 31 32 32 32
20 20 21 22 23 24 24 25 26 28 29 29 30 30 31 31 31 31 31 31 30 29 30 30 31 30 30 31 32 33 33 32 31 31 31 32 31 30 31 32 32 33 34
21 22 22 23 24 24 25 26 27 28 29 30 30 31 31 32 32 32 32 31 29 29 29 29 30 31 31 31 31 32 33 33 33 32 32 32 32 32 33 33 33 34 34
22 22 23 24 24 24 25 26 27 28 29 29 29 30 31 32 32 32 32 31 30 29 29 29 29 30 30 31 31 32 33 34 34 34 34 34 34 34 34 34 34 34 34
23 23 23 24 24 25 26 27 28 28 28 29 29 30 30 30 31 31 31 31 30 30 30 30 30 29 30 30 32 32 32 34 35 35 36 35 35 35 34 33 34 34 34
22 22 23 23 24 25 26 26 27 27 26 27 28 28 28 29 29 29 30 29 29 29 29 30 30 30 31 31 32 32 33 33 34 35 35 36 36 35 34 34 34 34 34
21 22 22 23 24 24 25 25 26 26 25 25 26 27 27 28 28 28 28 28 28 29 29 30 30 30 31 31 31 31 32 33 34 34 35 36 35 36 35 34 34 35 35
22 22 23 23 24 24 24 25 25 25 25 26 26 27 27 28 28 28 29 28 28 29 29 30 30 30 31 31 31 31 32 32 32 33 33 34 34 35 36 35 35 35 35
23 23 24 25 25 25 25 25 26 26 26 27 27 28 28 28 28 28 29 29 29 30 30 30 31 31 31 31 32 31 31 31 31 32 33 33 33 34 35 35 35 35 35
24 25 26 26 26 26 26 26 27 27 27 27 28 28 29 28 28 28 28 29 29 29 29 30 31 31 30 30 31 31 31 30 30 31 32 32 32 33 34 34 34 34 35
25 26 27 27 27 27 27 27 27 28 28 28 28 28 28 28 28 27 27 27 28 28 28 28 28 28 28 28 28 29 29 29 29 29 29 30 29 30 31 31 31 32 32
26 26 27 27 27 27 28 28 28 29 29 28 28 27 27 27 27 26 26 25 25 25 25 24 24 24 24 25 25 26 26 27 27 27 26 26 27 27 27 28 28 29 29
25 26 27 27 28 28 28 29 29 29 28 28 27 26 25 24 24 23 22 22 22 22 22 22 22 23 23 23 23 23 23 23 24 24 24 24 25 26 25 26 25 25 26
25 26 27 27 27 28 29 29 29 28 27 26 24 23 22 22 21 21 21 21 21 20 20 20 20 21 21 21 22 21 21 21 21 21 22 22 22 22 23 23 22 22 22
25 26 26 27 27 28 28 27 26 26 25 23 22 21 20 20 19 19 18 18 18 18 19 19 19 19 19 19 19 19 19 19 19 19 19 20 21 21 20 19 20 20 20
26 25 26 26 26 26 26 25 24 23 22 20 19 19 18 18 17 17 17 17 17 17 17 17 17 17 17 17 17 18 18 18 17 18 17 17 17 17 17 17 17 17 17
24 25 25 25 24 24 23 22 21 20 19 18 18 17 17 16 15 14 15 14 15 15 15 16 15 15 15 15 15 15 15 15 14 14 13 13 13 13 13 13 12 12 12
23 23 22 22 21 21 20 20 19 18 17 16 15 15 15 15 13 12 12 12 13 14 14 13 13 13 12 12 12 11 11 10 10 9 10 10 9 8 9 9 8 8 8
21 21 20 19 18 18 18 18 17 16 15 14 13 13 13 12 10 10 10 10 10 11 10 10 9 9 9 9 8 7 6 6 5 5 5 5 4 4 5 5 5 6 7
18 17 17 17 17 16 16 16 15 14 13 12 11 11 10 9 9 8 8 8 8 8 7 7 6 6 5 5 4 3 2 1 2 1 2 3 3 3 3 4 4 4 5
16 15 15 15 15 15 14 13 13 12 11 9 9 8 6 6 6 5 4 4 4 4 5 5 5 5 4 4 3 2 1 1 1 0 0 2 1 1 1 1 3 4 4
13 13 13 13 13 13 12 12 12 10 9 7 6 6 6 5 4 4 3 3 3 3 4 5 5 5 5 4 4 3 3 3 3 2 2 3 2 1 2 1 2 2 3
12 11 12 12 12 11 11 11 10 9 7 7 6 6 6 6 6 6 5 5 5 5 5 6 6 6 6 6 6 6 5 4 4 4 5 4 4 4 4 5 4 4 4
11 10 11 11 10 10 10 9 9 8 7 7 7 7 8 8 8 8 9 9 9 9 9 9 9 9 8 8 8 8 8 7 7 7 7 7 7 7 7 7 6 6 6

GEFSMW_500_meanwind_138.txt.gz
Wind_Speed
15 15 15 16 17 17 17 18 18 19 20 21 22 22 23 25 26 26 27 27 27 28 28 28 29 28 28 28 28 28 28 29 28 29 28 28 28 27 28 28 28 27 28
14 14 15 15 16 17 18 19 19 20 21 22 22 23 24 25 26 27 27 28 29 29 28 29 29 29 29 29 30 29 29 29 29 29 29 28 28 28 28 28 28 28 29
13 14 14 15 17 18 19 20 20 21 22 22 23 24 25 25 26 27 27 28 29 29 29 29 29 29 29 29 30 30 30 30 30 30 30 30 28 28 28 28 28 28 29
14 14 15 17 18 18 19 20 21 22 22 23 23 24 25 26 26 27 27 27 28 29 29 29 29 29 29 29 29 29 30 30 30 30 30 31 30 29 28 28 28 28 29
14 14 15 17 17 18 19 20 21 22 23 24 24 25 26 26 26 27 27 27 28 28 29 29 28 28 29 29 28 29 29 29 29 30 30 31 31 31 31 31 30 29 29
14 15 16 17 18 20 20 21 22 23 24 25 25 26 27 27 28 28 27 27 27 27 27 27 27 28 28 28 28 28 29 29 29 29 30 31 31 31 32 32 31 31 30
14 15 16 17 18 20 21 22 23 23 25 25 26 27 27 27 28 28 27 27 27 26 26 26 27 27 28 28 28 29 29 29 29 29 29 29 30 31 31 31 31 32 31
15 16 16 18 18 20 21 22 24 25 25 26 27 27 27 27 27 27 27 27 27 27 26 27 27 27 28 28 28 28 28 28 28 28 28 28 28 29 30 30 31 31 32
15 16 17 19 19 21 22 23 24 25 26 26 26 27 27 27 28 28 28 28 28 28 28 27 28 28 28 28 28 28 28 28 28 28 28 27 28 28 29 30 30 31 31
15 16 18 19 21 22 22 23 24 25 26 26 26 27 27 28 28 28 28 28 28 27 27 27 27 27 26 27 27 27 27 28 28 29 29 29 29 29 29 29 30 31 31
17 18 19 20 22 23 23 23 24 25 26 26 26 27 28 28 28 28 27 27 27 26 26 26 26 25 25 26 26 26 27 27 27 28 29 29 28 29 29 29 29 30 30
19 19 20 22 22 23 24 24 25 26 26 26 27 27 27 26 26 26 26 26 26 26 25 25 25 25 25 25 25 26 26 26 27 27 27 27 28 28 29 29 29 29 29
21 22 22 22 23 24 25 25 25 26 26 26 26 26 26 25 25 25 25 25 25 25 25 25 25 25 25 25 25 25 25 26 25 25 26 26 26 27 27 27 28 28 28
21 21 22 23 23 25 25 25 26 26 26 26 26 25 25 25 24 24 24 23 23 24 24 24 24 24 24 24 24 24 24 23 23 23 23 23 23 24 26 26 26 26 27
21 22 23 24 24 25 25 25 26 26 26 26 25 25 24 24 23 22 22 22 22 23 23 23 23 23 23 23 23 23 22 21 21 20 20 21 21 22 23 24 24 24 24
22 22 23 23 24 25 25 26 26 26 25 25 24 23 22 21 21 20 20 20 20 21 21 22 22 21 21 21 21 20 19 19 18 18 18 18 19 20 20 20 20 21 21
20 21 22 23 24 25 25 25 25 24 23 22 21 20 20 19 18 18 18 18 18 19 20 20 20 20 20 19 18 18 17 17 16 16 16 16 16 16 16 16 17 17 17
20 21 22 23 23 23 23 22 22 21 21 20 19 18 18 17 16 16 16 16 16 17 17 17 18 17 16 16 15 15 15 14 14 13 13 12 12 13 13 13 13 13 14
20 20 20 20 21 20 19 19 18 18 18 17 16 16 15 15 14 14 14 15 15 14 15 14 14 14 13 12 11 12 12 11 10 10 10 10 10 10 10 10 10 11 11
19 19 18 18 17 17 17 16 16 16 15 14 14 14 13 13 12 12 13 13 13 12 12 11 11 10 9 8 7 8 7 7 7 7 6 6 7 7 7 6 7 7 7
17 17 17 16 16 15 15 15 14 14 13 13 13 12 12 11 11 11 10 10 9 8 8 7 7 6 6 4 3 3 4 3 3 3 3 2 3 3 4 5 5 5 5
15 15 15 15 14 14 13 13 13 12 12 12 11 11 10 10 9 9 8 8 6 5 5 5 4 4 3 2 2 1 1 2 1 2 2 3 4 5 5 5 4 3 3
14 14 15 14 13 12 11 11 11 11 10 10 10 9 9 8 8 7 7 6 5 5 5 4 4 3 3 4 3 4 5 5 5 5 6 7 8 7 6 6 5 4 4
13 13 12 12 11 10 10 10 10 9 9 9 9 9 8 8 8 8 7 7 7 7 7 7 7 7 7 7 7 8 8 8 8 9 9 9 9 9 9 8 7 6 6
11 11 10 10 10 10 9 9 9 9 9 9 9 9 9 10 10 10 10 10 10 10 10 9 10 10 10 10 10 10 10 10 11 10 11 10 10 11 10 9 9 9 9
10 10 9 10 10 10 10 9 9 9 9 9 10 10 11 11 12 12 12 12 12 12 11 11 12 12 12 12 12 12 12 11 12 12 11 11 12 12 12 11 10 10 9

GEFSMW_500_meanwind_144.txt.gz
Wind_Speed
17 17 16 16 16 17 17 17 18 18 18 19 20 20 20 21 21 22 24 25 26 27 28 28 29 28 29 29 29 28 28 29 29 29 29 29 30 30 30 30 29 29 29
17 17 16 16 16 17 17 18 18 18 19 20 21 21 20 20 21 22 23 24 24 26 27 27 27 28 28 29 29 29 29 29 30 29 29 29 30 30 31 31 30 30 29
16 16 17 18 17 17 17 17 18 18 19 20 20 21 21 21 22 23 23 24 25 26 27 27 28 28 29 29 29 29 29 30 30 30 30 30 29 30 31 31 31 30 30
15 17 17 18 19 20 19 19 19 19 20 20 21 22 22 23 23 24 24 25 26 26 26 27 28 28 29 29 30 29 29 29 29 30 31 31 30 30 31 31 32 31 30
17 17 18 18 19 20 21 21 21 21 21 22 22 23 24 24 24 25 26 26 26 27 27 28 28 28 28 28 28 29 28 29 29 30 30 30 30 31 30 31 31 31 31
16 16 17 19 19 20 21 22 22 22 22 23 23 24 25 25 25 26 26 27 27 27 28 28 28 28 28 28 28 28 28 28 28 29 29 30 30 30 30 30 30 31 31
15 16 16 18 19 20 21 22 23 23 24 24 24 25 26 26 26 26 27 28 27 27 28 28 28 28 28 28 29 28 28 28 28 29 30 30 30 29 29 29 29 29 29
15 16 17 18 20 21 21 22 23 24 24 25 26 26 27 27 28 28 28 28 28 28 28 28 28 29 29 29 29 29 29 28 28 28 29 29 29 29 29 28 28 29 29
16 17 19 20 21 21 21 22 23 24 25 25 26 27 28 29 29 29 29 28 28 28 28 28 28 28 28 28 28 28 29 29 28 28 28 29 29 29 29 29 29 29 29
18 19 20 22 22 21 22 23 24 25 25 26 26 27 28 28 29 28 28 28 27 27 27 27 28 28 28 28 28 28 28 28 28 28 28 28 29 29 29 29 29 29 29
19 20 21 22 21 22 22 23 24 24 25 26 26 26 27 27 28 27 27 27 27 27 27 27 26 26 26 26 26 27 27 26 26 26 26 27 27 28 29 29 29 29 29
20 20 21 22 23 23 24 24 24 25 25 25 25 26 26 27 27 26 26 26 26 26 26 25 25 25 25 25 25 26 25 25 25 26 26 26 27 27 28 28 28 29 29
21 22 22 22 22 23 24 24 24 25 25 25 25 25 25 26 25 25 25 25 24 25 25 24 24 24 24 25 25 25 24 24 24 25 25 25 26 26 26 27 28 29 29
20 21 22 22 22 22 23 24 24 24 24 25 25 25 24 24 24 23 23 23 23 23 23 23 23 23 23 24 24 24 24 24 24 24 24 24 25 25 25 26 26 27 28
21 21 22 22 23 23 22 22 23 23 24 25 24 23 23 22 22 22 22 21 22 22 23 22 22 22 22 22 22 22 22 22 23 23 23 23 23 23 23 23 23 24 25
20 21 22 22 23 22 22 22 22 23 23 22 21 21 21 21 21 21 21 21 21 21 21 20 20 20 20 20 20 20 21 21 21 20 20 20 20 19 20 20 20 20 21
20 20 20 20 20 20 20 20 20 20 20 19 19 20 19 19 19 19 19 19 20 20 19 19 19 18 18 18 18 18 19 19 18 18 18 17 17 17 17 17 17 17 18
17 18 19 19 19 19 19 18 18 17 17 17 17 17 17 17 17 17 16 16 16 16 16 16 16 16 16 16 15 16 16 16 16 15 14 14 14 14 14 14 14 14 14
16 17 17 17 17 17 16 16 16 15 15 15 15 15 16 16 15 15 14 14 14 14 14 14 13 13 13 13 13 13 13 12 12 11 11 10 10 10 10 10 11 11 11
15 16 16 15 15 14 14 14 14 14 14 15 15 15 15 14 13 13 13 13 13 13 13 11 11 10 9 9 9 8 8 7 6 6 6 6 5 6 6 6 7 7 7
13 13 14 14 13 13 13 12 12 12 13 13 13 13 12 12 12 12 12 12 12 11 10 9 8 7 6 5 5 5 4 4 3 2 2 2 2 2 2 3 3 4 5
11 12 12 13 12 12 12 11 10 11 11 11 11 11 11 11 11 11 11 11 10 8 7 6 5 4 4 3 4 4 4 4 4 4 4 3 2 3 3 3 3 3 3
11 11 11 12 12 11 11 10 9 9 10 9 9 10 10 10 10 10 10 9 8 7 6 5 5 4 4 4 5 5 6 6 6 6 7 7 7 7 6 6 5 5 4
9 10 10 10 11 10 10 10 9 9 9 9 9 10 10 10 10 10 9 9 8 8 8 7 7 7 6 6 7 7 8 8 8 8 8 9 9 9 9 8 7 7 6
9 9 9 9 10 9 9 9 9 8 8 8 9 10 10 11 11 11 11 10 10 9 10 10 10 10 10 10 10 10 10 10 11 11 12 12 11 11 10 10 10 9 9
8 8 9 9 9 9 8 8 8 8 8 8 9 9 10 10 11 11 11 11 11 11 11 11 12 12 12 12 12 12 12 13 13 14 14 14 13 13 13 13 12 11 10

GEFSMW_500_meanwind_150.txt.gz
Wind_Speed
18 18 18 17 18 17 17 18 19 20 21 21 21 21 22 23 24 25 25 26 26 27 28 28 28 27 28 29 29 28 28 29 29 29 29 29 29 29 29 29 30 30 30
18 18 19 19 18 18 18 19 20 20 21 21 22 23 24 25 25 26 27 27 27 28 28 28 28 29 29 29 29 29 30 30 30 29 29 29 30 30 30 30 30 30 31
18 19 19 18 18 19 20 20 20 20 21 23 24 24 24 25 26 26 27 27 27 27 28 28 29 29 28 28 29 29 30 30 30 30 30 29 29 29 30 30 30 31 31
17 17 18 19 19 20 21 21 21 21 22 23 23 24 24 25 26 26 27 28 28 28 28 28 27 27 28 28 28 29 30 31 30 30 31 31 30 30 30 30 31 31 31
17 17 18 19 19 20 21 21 21 22 23 23 24 25 25 25 26 26 27 28 28 28 28 28 28 28 29 29 29 29 30 30 31 31 31 32 31 30 30 30 31 31 31
17 17 17 19 20 20 20 21 22 22 23 24 25 25 26 27 27 28 29 29 29 29 29 29 29 30 30 30 30 30 30 30 31 31 32 31 31 31 30 30 30 31 31
16 17 17 18 19 20 21 22 22 23 24 25 26 27 27 28 29 30 30 30 30 30 30 30 30 30 31 31 31 31 31 31 31 31 31 31 30 30 30 30 31 31 31
16 17 18 18 19 21 22 22 23 24 25 26 27 28 28 29 30 31 30 31 31 31 30 30 30 30 31 31 31 31 31 31 31 31 31 31 31 31 31 31 31 31 31
16 17 18 19 20 21 23 23 24 25 26 26 26 27 27 28 29 29 30 30 31 31 31 30 30 30 30 30 31 31 31 30 30 30 30 31 31 30 30 30 30 30 30
17 17 18 20 21 22 24 25 26 26 27 26 26 25 26 27 27 27 28 28 29 29 29 29 29 29 29 29 29 29 29 29 29 29 29 29 30 30 30 30 30 30 30
17 18 19 20 22 23 24 25 25 26 26 25 25 25 25 25 26 26 27 27 27 27 27 27 28 28 27 27 27 28 28 27 28 28 28 28 28 28 29 29 29 28 28
17 18 19 20 21 23 24 24 25 26 25 24 25 24 24 25 26 26 27 27 26 26 26 26 26 26 26 26 26 26 26 26 26 26 26 26 27 27 27 28 28 27 27
17 18 19 21 22 23 24 24 24 24 24 24 24 24 24 25 25 26 26 26 25 25 25 25 25 25 26 26 25 25 25 25 25 24 24 25 25 25 26 26 26 26 26
18 19 20 21 23 23 23 23 23 23 23 23 23 23 23 24 24 24 24 24 24 24 24 24 24 24 24 24 24 24 24 24 23 23 23 23 24 24 24 24 24 24 25
19 20 20 21 21 21 21 21 21 21 22 22 22 22 22 22 22 22 22 22 22 23 22 22 22 22 22 21 21 21 21 22 22 22 21 21 22 22 22 22 23 23 23
18 19 19 19 20 20 20 21 20 20 20 21 21 20 21 20 20 20 20 20 20 21 21 20 20 20 19 19 18 18 18 19 19 19 20 20 20 20 20 21 21 21 21
17 17 17 18 18 19 19 19 18 18 18 18 18 18 18 17 17 17 17 17 17 17 17 17 17 17 16 16 16 16 16 16 16 17 17 17 17 17 17 18 18 18 18
15 15 16 16 16 17 17 16 15 15 15 16 16 16 16 16 16 16 16 16 16 15 15 14 14 14 14 14 14 14 14 14 13 13 13 13 13 14 14 14 14 15 15
13 14 15 15 15 15 15 14 13 14 14 14 15 14 14 14 14 15 14 13 13 13 12 12 12 12 12 11 11 11 10 10 9 9 8 8 9 9 10 10 10 11 11
12 13 14 13 13 13 13 13 12 13 13 14 14 14 13 13 13 13 13 12 11 11 10 10 9 9 9 8 8 8 7 6 5 5 5 5 5 5 5 6 6 7 7
12 12 12 12 12 12 12 11 11 11 12 13 13 12 11 11 11 12 11 10 9 8 8 7 7 6 6 6 6 5 5 4 3 3 3 2 1 1 2 3 3 4 4
11 11 11 10 11 11 10 10 10 11 11 11 11 11 10 10 11 10 10 9 8 7 6 5 5 5 5 5 5 5 4 3 3 3 3 3 3 3 4 5 5 4 4
9 9 9 9 10 10 10 10 10 11 11 11 10 10 9 9 10 9 9 8 8 7 6 5 5 5 5 5 5 6 5 5 5 6 6 6 6 7 7 7 6 6 6
8 8 8 8 9 9 9 10 10 10 9 10 10 9 9 9 9 9 8 8 8 7 7 6 6 6 6 6 7 8 8 8 8 8 8 9 9 10 10 9 9 9 8
7 7 7 8 9 9 9 8 8 8 9 9 9 9 9 9 9 8 9 9 9 8 8 8 8 8 8 9 10 10 10 11 11 11 11 12 12 12 11 11 10 9 9
6 6 7 7 8 8 8 8 8 9 8 8 8 8 8 8 9 9 9 9 10 10 10 10 10 10 10 11 12 12 12 12 12 11 12 13 13 13 12 12 12 11 11